GFSWCAN_sfc_thetae_000.txt.gz
Theta_e
307 306 306 306 306 306 307 307 307 308 307 306 306 306 306 307 307 314 312 315 311 302 305 309 308 303 302 299 292 299 296 294 288 282 279 284 283 285 284 288 285 282 279 276 276 273 276 294 295 287 291 294 295 295
306 305 305 305 305 306 307 307 307 308 307 306 306 306 306 306 307 311 311 316 316 308 307 310 310 310 308 306 303 299 296 297 293 288 288 290 284 286 279 280 292 284 286 283 285 285 292 295 295 296 298 295 295 294
305 305 305 305 305 306 306 306 306 307 307 306 305 305 306 306 307 311 312 313 311 299 302 305 305 311 313 312 310 300 298 305 301 296 291 289 281 285 283 285 285 292 296 286 288 294 295 297 299 300 299 297 297 297
304 304 304 304 305 305 305 305 305 306 306 304 303 304 304 305 307 311 312 312 305 297 288 298 310 308 313 314 313 309 307 306 301 295 289 288 282 292 283 287 285 290 295 291 289 293 295 298 298 299 298 298 298 299
302 302 303 303 304 305 305 304 304 303 303 304 305 305 306 306 306 312 312 310 312 304 291 295 306 310 311 312 310 309 307 304 296 290 286 286 283 289 287 284 284 295 292 287 288 295 295 295 298 299 297 297 299 298
301 302 302 302 303 304 305 306 304 302 303 304 305 306 307 306 307 311 304 310 308 310 297 289 300 303 306 309 309 307 306 304 299 293 288 291 299 289 286 289 295 298 300 298 295 299 300 298 299 299 298 298 297 291
301 301 301 302 302 303 303 304 304 302 303 304 305 306 306 306 307 305 301 306 304 307 294 292 288 297 302 304 300 302 303 301 300 292 289 291 290 295 287 284 294 298 299 299 301 300 296 298 296 299 296 293 291 288
300 301 301 301 302 302 303 303 304 304 303 304 306 306 307 305 307 306 307 305 307 303 295 288 288 289 301 291 291 297 293 296 297 293 290 289 290 286 286 293 297 299 300 299 300 298 298 299 298 294 292 289 287 286
300 300 300 301 301 301 301 303 304 304 304 305 306 307 305 303 300 306 304 304 309 302 290 287 287 287 296 293 291 289 294 287 294 289 288 291 288 289 293 295 297 298 297 297 298 297 298 297 292 290 289 288 286 285
300 300 301 301 301 301 301 303 304 304 304 305 303 297 292 298 303 305 301 296 295 293 295 287 291 289 295 287 287 289 287 287 287 288 293 287 288 293 294 298 297 297 297 297 292 291 291 289 288 288 287 288 287 285
301 301 301 301 301 302 302 303 304 304 305 301 296 292 298 303 301 296 290 289 291 289 292 291 289 290 291 288 287 287 286 286 285 283 288 285 285 288 293 294 296 296 298 296 293 292 291 289 288 287 287 286 284 283
301 301 301 301 301 301 302 303 303 301 299 299 299 300 298 294 291 289 288 288 288 287 288 288 289 292 290 294 288 287 286 286 283 288 285 282 285 291 292 291 290 290 290 290 290 289 289 288 287 285 283 282 280 281
300 301 302 301 300 300 301 301 301 301 300 298 293 288 292 286 285 287 286 285 285 286 287 287 287 287 289 291 286 286 285 284 286 285 283 284 291 291 289 288 288 289 289 288 287 287 287 286 284 281 281 278 277 280
300 300 300 300 300 300 300 300 301 300 295 288 287 285 285 282 283 283 284 285 285 285 286 286 285 286 285 286 285 283 284 284 281 278 276 285 291 290 289 289 287 286 284 285 285 284 282 281 280 278 277 277 274 276
298 300 300 299 300 300 300 300 299 296 291 286 285 281 281 283 284 285 285 285 286 287 286 286 285 286 284 283 284 282 280 278 280 280 283 286 289 290 287 286 283 283 283 284 285 283 281 279 276 279 278 277 281 283
299 300 298 299 299 300 300 298 295 291 286 286 285 283 284 284 284 285 285 286 288 286 286 286 284 284 282 282 280 280 279 278 282 285 284 286 287 285 285 285 285 285 285 285 284 283 282 279 278 280 280 280 279 279
299 293 300 299 299 300 298 294 288 286 283 285 283 285 285 285 284 285 285 286 289 286 284 284 278 278 282 280 280 284 282 284 285 285 285 286 285 286 286 286 284 285 285 285 283 285 281 280 277 278 280 284 280 281
293 298 299 299 299 297 291 293 288 285 282 284 283 284 284 285 285 285 285 286 286 284 285 282 283 280 279 277 279 284 284 285 285 285 285 285 286 286 287 286 286 285 284 282 281 282 280 278 280 282 283 284 282 281
296 298 298 299 297 290 288 288 289 280 281 284 284 284 284 285 285 285 285 286 286 285 284 281 277 277 281 282 284 284 285 282 283 284 284 286 286 285 285 286 285 285 284 284 284 283 283 284 283 283 283 280 278 277
297 297 297 297 296 286 285 282 289 283 283 282 284 283 283 283 284 285 285 285 285 285 282 276 275 278 280 281 281 280 280 281 280 279 281 282 282 285 285 284 282 283 283 284 282 278 280 281 282 281 277 281 283 282
294 295 294 291 289 286 286 284 285 285 282 283 283 282 281 283 282 283 285 285 284 283 277 280 283 285 280 280 280 280 282 281 279 278 278 279 280 280 280 281 282 280 278 277 274 279 276 278 282 281 281 284 285 284
293 294 287 289 286 285 284 285 285 284 283 282 282 283 280 280 281 283 283 280 281 278 279 277 282 280 280 283 282 283 284 284 283 279 278 279 280 280 280 280 279 276 276 275 278 279 280 279 281 280 283 280 283 283
293 289 287 286 283 282 279 285 283 282 279 280 282 278 278 279 280 282 279 282 282 280 282 281 283 285 285 283 282 283 282 283 281 280 278 279 279 275 276 277 275 274 277 279 281 280 279 279 282 282 282 282 283 283
292 286 283 281 281 279 282 281 283 281 280 279 279 277 275 278 279 277 271 275 282 282 282 281 280 283 282 281 280 279 279 280 278 277 277 276 275 276 276 275 275 275 275 276 275 275 275 275 275 276 278 279 281 281
282 275 280 271 279 275 269 269 277 274 270 272 275 273 275 276 267 266 268 276 280 281 281 282 280 282 280 279 280 279 278 277 276 275 273 274 270 271 273 273 272 271 271 271 270 269 270 270 271 273 274 275 277 278
277 275 278 274 271 272 272 274 271 272 271 277 277 273 276 275 271 266 275 278 279 279 280 280 279 278 278 279 277 276 274 275 275 269 274 274 272 268 266 266 267 266 269 269 269 267 267 268 269 270 271 272 275 275
272 274 279 281 281 279 279 280 279 277 274 275 271 275 275 271 268 274 277 278 279 279 279 279 279 278 277 278 276 274 271 270 268 270 273 272 270 269 267 266 264 266 267 267 267 266 266 267 268 268 270 271 273 270
277 277 275 278 280 280 278 277 277 276 277 278 276 272 271 267 269 274 276 278 279 277 277 277 277 276 275 273 271 267 265 265 266 270 269 267 265 265 262 260 261 267 262 263 266 266 266 267 268 269 269 270 267 267
279 281 280 277 277 277 277 277 277 279 281 277 273 271 272 273 271 273 273 274 277 276 273 271 268 268 269 270 266 262 261 261 260 257 254 253 254 259 262 258 257 260 262 264 265 266 267 267 270 270 268 267 265 264
277 277 273 271 273 275 278 279 279 280 280 280 275 274 272 270 270 271 271 271 271 270 270 267 263 264 258 258 256 260 262 255 258 257 253 254 258 260 257 258 261 261 262 263 261 262 264 265 268 265 265 265 264 262
280 280 278 275 276 278 279 280 281 282 281 281 272 270 267 266 267 268 268 267 265 264 264 261 261 258 258 259 258 256 257 261 259 257 256 257 256 254 254 256 257 257 261 260 258 261 261 260 262 261 260 260 260 259
278 276 275 274 271 277 280 279 278 277 266 274 272 272 268 263 258 260 264 261 261 258 255 254 255 257 258 259 258 258 258 256 256 257 259 258 256 253 254 256 257 258 258 254 256 260 259 257 258 257 257 256 257 257
268 264 266 260 266 265 264 264 262 262 264 268 269 266 262 261 259 262 264 260 258 256 255 254 253 252 255 255 254 254 257 254 254 260 261 261 258 257 255 255 256 251 250 251 253 257 255 255 254 256 255 255 255 255

GFSWCAN_sfc_thetae_003.txt.gz
Theta_e
307 306 306 305 305 306 306 306 306 306 307 306 306 306 306 306 307 312 312 312 308 301 303 306 306 302 300 298 292 298 295 293 286 282 279 280 279 284 283 286 285 283 279 277 278 272 277 292 293 287 291 292 295 294
305 305 305 305 305 305 306 306 306 306 305 307 305 306 306 307 307 311 310 314 312 306 304 308 308 308 306 304 301 297 297 295 292 286 285 286 283 285 280 280 289 282 284 282 284 284 291 293 294 295 295 295 294 294
305 304 305 305 305 305 305 306 306 305 304 303 303 304 304 305 308 311 311 310 306 298 301 304 304 309 311 309 308 299 296 302 297 294 290 285 279 282 281 283 284 290 293 285 287 292 292 294 296 298 297 296 296 296
304 304 304 304 304 305 305 305 305 304 303 304 305 305 306 306 308 311 309 308 302 295 289 298 308 306 311 312 310 306 304 301 297 293 287 287 282 290 281 286 284 289 293 289 288 292 294 296 298 298 298 297 297 297
303 304 304 304 304 304 304 304 302 303 304 305 306 306 306 307 307 310 308 306 308 301 290 292 304 307 308 310 308 307 305 301 294 288 286 285 283 288 287 285 285 293 291 286 285 293 294 293 297 299 297 296 297 296
302 303 303 303 304 304 304 301 302 303 304 305 306 306 306 307 309 306 299 308 307 305 295 289 298 301 304 307 306 306 305 300 296 292 286 289 294 288 287 287 294 296 298 295 294 296 295 296 298 298 297 297 298 290
302 302 302 302 303 303 304 302 302 303 304 305 306 305 304 307 307 302 296 304 303 304 293 291 288 295 299 302 298 301 301 299 297 292 288 289 287 293 287 286 295 296 298 298 298 298 293 295 295 298 295 292 291 288
301 301 301 302 302 302 303 303 302 302 304 306 306 305 305 306 306 305 305 303 304 299 294 288 287 289 299 290 290 296 292 295 295 292 291 289 289 288 286 293 295 297 298 297 298 299 297 298 296 291 289 288 287 286
300 300 300 300 301 302 303 303 304 302 304 306 305 305 305 303 300 304 303 303 305 300 290 287 286 287 295 292 290 290 294 287 293 289 288 290 286 287 292 293 294 296 296 296 297 296 296 293 290 289 288 288 286 284
300 301 300 301 301 301 302 303 303 303 305 304 303 296 293 298 304 304 302 295 293 293 293 286 291 288 295 287 287 287 287 287 287 288 292 287 288 291 292 293 295 296 296 296 290 287 286 286 288 289 289 288 287 286
301 301 301 301 302 302 302 303 304 304 303 299 296 292 299 303 299 294 290 289 292 289 292 290 288 289 294 288 288 287 286 285 285 284 288 285 284 287 291 290 291 292 291 290 291 291 291 291 289 287 286 287 286 284
302 301 300 300 300 301 302 303 303 300 299 298 297 299 296 291 289 288 286 287 288 287 288 288 289 291 290 293 288 287 286 285 283 287 285 283 282 285 286 286 288 290 290 289 290 289 288 288 289 287 286 284 282 282
300 300 300 300 300 300 301 301 301 301 300 298 293 289 293 287 286 286 285 285 285 285 287 286 287 287 289 290 286 286 285 284 285 284 283 283 287 289 290 289 288 289 288 288 287 288 288 286 284 281 282 281 280 281
300 300 300 300 299 300 300 300 301 299 295 289 287 285 285 283 283 283 284 285 285 285 285 286 285 286 285 286 285 284 284 284 282 277 275 285 289 290 290 287 285 285 284 286 286 284 282 282 281 280 280 279 277 279
299 299 299 299 300 300 300 299 298 294 287 285 283 280 280 282 284 284 285 285 285 287 286 286 285 286 284 284 284 282 280 278 279 278 283 285 289 288 286 284 283 283 284 284 284 282 279 279 279 280 279 277 280 280
299 298 297 299 299 300 299 297 293 289 283 285 285 282 283 283 284 285 285 285 288 286 286 286 284 283 282 282 278 275 276 276 281 283 285 287 288 284 286 287 287 286 285 285 284 283 282 279 279 281 280 278 277 277
298 293 298 299 299 299 298 292 286 284 282 285 282 285 284 284 284 285 285 286 289 286 283 284 280 276 282 277 278 283 281 283 285 285 285 286 286 285 286 285 284 285 286 285 283 284 282 279 276 279 279 283 280 280
293 293 298 299 297 295 291 289 283 282 283 283 282 284 284 285 285 285 285 286 285 285 284 281 283 278 278 276 279 283 284 285 285 286 285 285 286 286 286 285 285 285 284 282 281 282 280 278 280 281 283 283 281 280
293 295 297 298 295 287 283 288 287 278 282 283 283 283 284 284 284 285 285 286 283 282 280 276 275 273 276 281 284 285 285 282 282 282 282 285 285 285 285 285 285 284 284 284 284 281 280 283 281 281 281 279 277 281
297 296 296 295 295 284 283 281 288 282 282 281 283 282 282 282 284 284 285 285 284 284 279 274 275 277 277 278 278 277 279 284 278 276 278 280 282 283 282 281 280 282 281 281 280 278 280 280 281 281 280 282 283 283
292 292 292 289 285 285 284 284 284 285 284 282 282 282 281 282 282 282 284 284 284 282 276 277 274 275 279 279 278 278 281 280 278 278 278 278 279 281 281 280 280 279 277 279 280 280 280 279 280 281 281 281 282 283
288 292 286 289 284 285 285 285 284 284 282 282 282 282 280 279 280 281 282 282 282 278 277 275 279 281 283 282 282 284 284 283 282 280 279 279 278 278 279 277 276 274 277 277 277 277 276 277 277 276 276 276 278 281
292 289 286 285 283 281 276 285 283 281 279 279 282 279 278 279 280 282 279 282 282 284 284 283 283 284 282 282 281 281 281 281 278 277 275 277 277 271 274 275 274 272 272 273 274 272 270 269 270 270 271 274 275 276
292 285 282 281 281 278 281 279 282 278 278 279 278 276 276 278 279 278 276 278 282 282 282 282 283 281 280 279 277 276 278 279 276 275 274 276 276 275 275 273 270 269 268 270 268 265 267 266 266 268 269 269 269 270
279 274 280 275 279 277 274 274 274 275 269 270 274 274 277 274 273 274 272 277 279 280 280 281 282 281 278 277 277 275 276 277 276 274 273 273 269 269 269 270 267 268 267 264 265 265 264 265 265 265 266 266 266 268
276 275 277 277 272 274 268 264 270 274 266 269 272 272 271 275 273 272 275 277 278 278 278 278 278 277 277 277 274 273 272 273 273 270 270 270 268 261 259 261 262 261 266 261 263 263 263 263 264 264 264 265 266 267
274 268 273 279 280 277 278 277 275 274 272 275 272 271 274 273 271 274 276 277 276 276 279 279 278 277 275 272 272 270 268 267 267 270 269 268 267 266 262 257 260 263 264 261 261 261 261 261 262 263 265 266 265 265
273 276 272 272 276 280 277 276 276 276 277 278 277 274 273 271 269 273 274 276 276 275 274 274 274 272 270 269 266 265 266 265 269 267 265 263 262 259 258 256 257 265 259 257 258 258 259 261 263 264 263 260 261 262
276 276 276 275 275 275 276 276 276 278 280 278 273 271 269 270 268 268 272 274 274 273 269 269 267 267 265 264 262 259 258 259 258 255 252 251 252 256 257 254 253 254 255 255 261 264 263 264 265 263 263 261 258 257
275 274 271 268 273 273 276 278 277 279 280 275 273 272 270 267 268 269 269 269 268 266 265 263 260 261 254 255 254 258 258 254 253 255 252 252 255 257 252 253 253 253 255 253 257 257 259 255 256 253 255 255 257 258
279 279 277 273 275 277 278 280 280 280 280 275 272 268 263 262 264 267 265 264 263 260 259 257 257 252 255 253 252 252 254 254 253 257 256 255 252 250 251 253 252 252 252 252 251 250 254 251 249 249 250 251 252 254
277 275 270 269 269 273 270 270 266 273 271 270 271 268 261 259 255 261 262 258 256 256 252 250 252 255 254 254 253 252 255 253 251 251 254 254 251 250 250 251 250 249 248 248 249 250 250 249 248 248 248 248 249 251
261 262 265 259 265 265 262 261 259 259 265 269 264 263 258 259 258 261 262 257 256 254 253 253 252 250 251 252 252 251 254 251 250 256 256 257 254 254 250 248 247 246 247 246 246 247 248 248 247 247 247 247 247 249

GFSWCAN_sfc_thetae_006.txt.gz
Theta_e
306 306 305 305 305 305 306 306 306 305 305 305 305 305 305 307 309 313 311 311 307 300 301 305 304 299 299 297 292 297 294 292 285 282 279 279 277 283 282 285 284 283 278 276 275 270 276 290 291 287 291 289 293 293
305 305 304 305 305 305 305 305 306 307 304 304 303 303 304 306 309 314 311 315 310 304 303 306 307 306 305 303 299 295 296 294 292 285 278 284 283 285 279 280 288 283 284 281 282 282 289 291 291 293 293 292 293 294
304 304 304 304 304 305 305 305 304 305 302 303 304 305 305 308 309 313 311 306 305 297 300 303 302 308 310 308 307 298 294 299 294 292 285 281 279 283 281 282 282 289 290 283 285 290 291 292 294 296 296 295 295 295
304 304 304 304 304 304 304 303 302 302 304 305 306 307 307 308 309 310 308 306 301 295 289 296 306 305 309 310 307 304 301 298 295 292 285 286 280 287 279 284 283 288 291 288 286 291 291 294 296 296 297 297 296 296
304 304 304 304 304 304 303 302 302 304 305 306 306 306 307 309 309 309 306 305 305 300 290 291 301 303 306 307 305 304 302 298 293 287 284 285 282 286 286 285 284 291 289 285 285 292 292 292 295 296 296 297 296 295
304 303 303 303 303 302 302 302 302 304 304 304 305 306 307 307 307 300 297 304 306 302 295 289 296 298 302 304 304 303 302 297 295 291 285 287 291 288 286 284 292 294 295 294 292 293 294 294 296 297 297 296 296 293
303 303 303 303 303 302 301 302 302 304 304 305 305 306 306 306 307 299 295 301 303 301 293 288 287 294 297 299 297 298 299 297 295 291 286 284 289 290 287 283 294 295 297 297 297 296 293 294 295 295 296 293 289 287
302 302 302 302 303 303 302 301 302 304 305 305 305 305 305 306 305 303 304 303 303 297 293 286 285 288 297 290 290 296 291 294 294 290 290 287 290 288 287 291 293 296 296 296 297 297 295 295 291 287 288 287 286 286
300 301 301 301 302 303 302 301 302 304 305 304 304 305 305 302 301 303 303 303 303 299 289 288 286 285 295 291 290 291 293 286 293 290 288 291 286 287 289 290 292 293 293 294 293 294 292 287 286 287 287 287 286 285
300 300 301 301 301 302 302 301 303 305 304 303 302 296 293 299 304 303 299 294 293 292 293 286 290 288 296 287 287 287 287 287 287 288 292 287 288 289 289 289 290 291 293 294 289 287 286 286 286 287 287 287 286 286
300 301 301 301 302 302 303 303 303 304 303 298 294 292 299 301 298 291 287 287 291 289 290 290 288 288 293 288 288 287 286 285 284 284 287 285 284 285 285 286 288 289 290 289 290 290 291 290 288 287 286 287 287 287
301 300 300 300 301 301 302 302 302 300 297 298 299 298 295 292 289 287 285 287 288 286 287 288 288 291 289 291 288 287 286 285 283 287 285 282 283 284 286 287 289 290 289 289 290 289 289 290 290 288 287 285 283 282
300 300 300 300 300 301 301 301 301 301 299 295 292 288 291 287 286 285 284 285 285 285 286 286 287 286 289 290 286 286 285 284 285 284 283 283 287 291 291 288 287 289 289 289 289 290 288 284 283 282 282 281 281 282
299 299 299 300 300 300 300 300 300 298 295 289 287 285 285 284 283 283 284 284 284 285 285 286 285 286 285 286 285 284 284 284 282 277 274 284 287 288 286 286 285 285 286 286 284 283 281 281 281 280 280 280 278 280
299 299 299 298 299 300 299 298 297 295 289 285 285 280 281 283 284 284 285 285 285 287 286 286 285 287 285 284 283 282 278 274 274 272 283 285 287 287 283 284 285 284 281 282 283 282 281 280 278 280 280 278 279 279
298 297 296 298 299 299 299 295 291 288 284 285 284 282 283 283 283 285 285 285 288 286 286 286 284 282 281 282 279 277 274 272 278 283 285 287 285 285 286 286 286 286 285 285 283 282 281 279 278 279 279 277 275 275
297 292 297 298 298 297 297 290 286 284 284 284 283 285 284 284 284 285 285 286 288 286 283 283 278 277 281 275 276 280 277 282 285 285 286 287 287 285 287 286 284 284 285 284 282 283 280 278 277 279 280 283 281 279
290 292 297 297 296 293 289 286 281 282 283 283 282 283 284 285 285 285 285 285 285 285 284 280 283 275 271 271 272 281 283 280 281 282 283 285 286 285 285 284 284 284 284 281 280 281 279 279 280 280 280 281 279 279
293 294 296 296 293 286 284 285 284 278 281 283 283 283 283 284 284 284 285 285 282 279 280 275 273 273 274 276 277 285 285 285 281 280 281 284 283 283 284 285 284 283 282 281 281 280 279 280 280 280 279 280 279 281
296 295 294 294 293 283 281 282 286 281 281 282 283 282 282 282 283 284 285 285 283 278 276 274 275 276 276 276 277 278 285 285 278 275 277 279 283 283 282 282 280 280 280 280 280 280 279 278 278 278 277 277 277 277
290 291 291 288 284 284 282 280 281 283 283 282 281 281 280 282 282 282 283 284 284 282 277 276 271 271 281 281 278 278 281 279 278 276 277 280 280 280 279 278 278 278 277 276 275 276 275 275 274 272 270 270 273 275
288 292 282 285 282 284 281 283 283 281 282 281 281 281 279 279 279 281 282 281 281 281 280 277 278 283 283 281 281 282 282 281 281 281 279 278 277 276 275 274 274 273 273 272 272 267 266 270 269 268 267 268 271 272
290 285 281 279 274 273 277 285 281 278 278 276 281 279 278 278 280 282 278 281 281 283 284 284 282 282 281 280 280 280 280 278 276 275 275 276 275 274 272 270 269 266 267 269 269 267 265 264 265 264 265 266 266 266
288 281 276 277 275 269 280 279 281 279 277 272 271 273 274 276 279 277 276 278 281 282 282 282 281 279 279 277 276 276 277 277 275 273 275 275 273 272 271 269 267 266 265 266 265 262 262 259 261 263 262 262 263 263
272 276 276 276 278 268 273 274 276 277 275 266 274 267 274 272 274 273 273 274 278 278 279 281 280 279 275 274 274 274 274 277 274 270 270 270 267 267 267 267 265 266 264 259 259 259 259 259 259 259 261 261 262 264
272 274 276 276 276 275 266 267 270 275 274 268 269 272 268 269 266 268 273 274 277 276 277 277 277 275 274 275 273 272 271 272 272 268 268 268 265 260 258 257 258 259 262 255 255 255 257 258 257 257 259 261 261 259
268 271 275 280 279 277 272 271 273 274 272 274 273 273 274 269 269 272 276 275 275 274 276 277 277 274 272 270 270 268 268 268 268 267 267 267 266 264 258 254 255 259 260 257 252 252 254 257 257 258 260 260 256 258
273 278 270 270 275 276 275 270 269 274 276 277 274 272 272 270 268 271 273 275 274 273 271 270 270 269 267 266 266 265 266 266 266 265 264 262 261 256 255 254 254 261 255 251 250 253 252 256 259 260 259 257 253 251
275 276 276 270 271 274 273 272 272 276 279 277 274 271 269 268 267 267 270 272 272 270 267 266 265 266 265 264 262 260 259 256 256 254 252 250 250 255 253 250 250 251 250 249 257 261 261 261 259 254 251 252 254 254
274 271 269 265 268 269 275 273 273 274 274 273 272 271 268 265 267 268 268 268 265 263 262 261 261 261 257 256 254 255 253 250 251 253 251 249 253 254 248 249 250 252 251 248 249 251 255 251 252 250 249 249 248 247
278 277 275 273 273 275 275 279 279 280 278 271 270 267 263 262 263 265 263 262 262 261 259 254 253 249 252 251 250 250 252 251 249 252 252 251 250 248 248 250 249 247 245 244 244 245 246 246 244 244 245 246 247 245
275 269 265 267 268 269 268 267 266 264 271 272 267 263 256 258 255 260 260 257 256 254 251 248 251 253 251 250 248 248 252 250 249 250 250 251 251 249 248 248 245 244 245 244 244 244 245 245 244 244 244 244 244 245
262 263 262 265 268 268 261 259 257 261 267 267 259 258 256 258 257 259 260 256 256 254 252 251 251 250 250 250 250 249 252 249 249 255 256 256 253 251 248 245 244 244 245 244 244 243 245 245 244 244 243 243 243 244

GFSWCAN_sfc_thetae_009.txt.gz
Theta_e
306 305 305 305 305 305 306 306 306 305 305 305 305 305 306 307 308 312 311 312 309 302 304 307 304 300 300 300 296 299 298 297 290 288 288 286 287 288 287 288 287 287 284 282 278 280 282 292 295 292 297 297 297 297
305 305 305 305 305 305 305 305 305 304 304 302 303 305 306 307 308 311 312 313 312 306 305 308 308 309 308 305 301 299 300 297 296 290 287 286 286 286 284 287 290 286 289 288 287 288 294 294 297 298 297 297 298 298
304 304 304 304 304 304 304 304 303 302 302 303 304 306 307 309 309 312 312 308 307 302 303 306 305 309 310 308 309 301 297 301 296 295 289 287 287 287 285 286 288 291 291 289 290 293 292 294 297 298 299 299 299 300
304 304 304 304 304 303 302 302 304 303 304 305 306 306 308 309 309 311 309 307 304 299 290 299 307 305 308 310 309 306 301 298 297 295 289 287 288 290 286 290 289 292 292 290 290 293 295 296 298 301 300 300 300 300
303 304 304 303 303 301 301 302 304 305 305 306 308 307 308 309 309 311 309 307 306 304 293 294 303 303 306 307 304 304 302 300 296 292 288 290 288 289 288 288 288 293 292 291 291 297 297 297 298 300 300 300 301 300
303 303 303 302 301 301 302 303 304 304 305 305 307 308 308 308 305 306 302 306 305 303 297 291 298 299 301 304 303 303 302 299 298 295 290 291 293 292 287 288 295 295 296 297 297 298 298 299 298 301 300 300 299 297
303 303 302 300 301 301 302 303 304 304 304 305 306 308 308 307 308 300 298 303 303 302 295 290 291 296 298 300 298 300 301 298 298 293 289 289 291 293 287 287 295 296 298 298 299 299 298 299 298 296 292 289 289 289
302 302 302 302 301 300 301 302 304 304 304 304 305 305 305 305 305 304 305 304 302 297 294 288 287 291 297 293 291 297 293 297 295 292 291 290 291 291 289 292 293 295 296 297 298 299 297 291 290 288 289 289 288 288
301 301 302 302 301 301 301 303 304 304 303 303 304 304 305 303 301 303 303 302 303 299 289 286 287 287 297 292 291 293 295 289 294 292 291 293 287 286 287 288 289 290 291 294 291 290 289 287 287 288 289 289 287 287
301 301 301 301 301 301 302 303 303 303 303 303 303 299 293 300 303 303 299 295 293 292 295 287 290 288 295 288 288 290 290 288 287 289 293 288 288 287 286 288 289 289 290 295 290 286 287 287 286 287 287 289 289 288
301 301 301 302 302 302 302 302 302 303 303 299 295 294 300 301 299 292 288 288 290 287 291 290 289 289 294 290 288 288 287 287 285 288 288 287 285 285 288 288 289 289 290 291 291 291 290 289 288 287 288 289 289 289
301 300 300 301 301 301 301 301 302 300 298 299 299 299 296 293 289 288 286 288 285 285 287 288 289 292 290 294 290 288 287 286 284 288 286 283 283 286 288 287 289 290 291 291 291 290 290 289 290 289 289 288 286 285
300 300 300 300 300 301 300 300 301 300 299 297 293 289 292 288 285 282 283 285 285 286 287 286 287 287 290 290 287 287 286 285 287 285 283 283 287 288 288 288 289 290 290 291 290 290 288 286 284 283 284 283 283 284
298 299 299 299 300 299 299 299 299 297 294 287 286 284 284 284 283 284 285 285 285 285 286 287 286 287 286 287 285 285 284 285 283 281 280 284 286 285 287 288 288 288 285 285 285 285 284 284 283 283 283 282 281 283
298 298 298 297 299 299 298 297 297 295 290 286 285 279 281 283 284 284 285 285 285 287 287 286 286 288 285 285 284 284 280 277 278 278 283 285 285 284 285 285 285 285 281 284 286 284 281 281 279 282 281 281 282 281
297 296 294 297 298 298 297 295 293 291 287 285 284 282 283 284 284 285 285 285 288 286 286 286 284 284 282 283 281 280 279 276 280 284 285 285 285 285 285 286 287 287 286 287 285 284 283 281 280 281 282 282 279 280
295 290 296 297 297 296 296 290 287 285 285 284 283 285 284 285 284 285 285 286 288 286 284 284 282 279 283 278 278 281 278 281 285 285 287 287 286 287 288 287 285 286 286 285 284 283 282 280 280 281 279 280 280 281
289 292 296 296 295 293 289 286 284 285 283 283 283 283 285 285 285 285 285 286 286 285 285 281 284 279 275 273 277 282 283 284 285 285 288 288 287 286 287 286 285 285 283 282 281 281 280 280 279 278 278 278 279 280
292 293 295 295 293 287 284 284 284 280 282 283 283 283 283 283 284 285 285 286 284 282 284 279 275 277 278 279 281 284 284 284 283 284 284 285 285 285 285 285 284 282 281 280 280 279 279 279 278 277 276 275 275 277
294 294 294 293 292 284 282 282 286 283 281 283 283 282 282 282 283 284 285 285 284 280 278 276 278 279 279 280 281 283 286 287 284 282 281 282 283 282 282 281 281 280 279 279 278 276 276 276 274 273 272 272 271 272
290 290 290 288 284 284 284 282 281 282 283 282 282 282 281 283 282 282 283 284 284 283 282 279 278 280 282 281 281 284 284 283 282 282 282 280 280 279 277 277 278 276 275 274 272 270 270 270 271 270 269 269 269 271
287 290 282 285 280 280 281 283 283 280 283 279 277 282 278 279 280 281 282 282 282 282 282 282 282 283 283 281 281 281 282 282 281 280 280 279 277 275 273 272 273 271 271 270 270 267 267 268 268 267 267 267 268 268
288 284 279 276 275 275 278 282 279 279 272 272 279 274 274 275 278 281 278 281 282 283 284 283 282 282 280 280 279 279 279 278 277 276 276 275 273 271 270 269 269 268 267 267 268 267 266 263 265 264 265 265 266 266
286 279 271 269 270 268 280 278 281 279 280 276 275 269 271 271 277 276 273 276 280 282 282 282 280 278 278 277 275 276 278 276 274 273 275 274 272 270 270 268 267 266 265 265 264 263 263 262 260 262 262 262 263 264
272 276 271 270 270 270 273 274 276 277 275 276 269 267 275 276 271 268 269 274 276 276 278 280 279 277 274 273 274 273 275 276 272 269 270 271 269 269 268 267 266 265 265 262 261 260 261 261 261 260 261 261 262 263
267 278 276 275 276 275 269 269 271 274 275 267 270 271 271 273 269 268 271 272 274 274 275 276 274 273 272 273 272 271 271 273 271 267 267 267 266 264 263 262 262 263 263 260 259 259 259 259 259 259 260 262 261 260
267 276 277 280 279 277 269 269 272 272 268 269 273 273 271 271 268 270 274 273 273 272 272 273 274 272 271 270 270 269 269 269 269 268 267 267 266 265 262 261 260 262 262 260 258 257 257 257 258 259 261 262 261 259
277 278 271 277 271 274 269 268 268 271 273 277 274 267 267 267 269 270 271 274 272 271 270 269 269 268 267 267 267 268 267 266 266 265 264 263 262 261 260 259 258 260 257 256 257 258 258 258 259 260 260 259 259 259
271 272 270 267 267 270 270 270 269 273 276 273 269 266 266 267 266 266 269 271 271 270 267 266 266 266 265 263 261 260 260 262 262 258 257 258 258 261 260 258 257 257 256 255 258 260 262 263 262 260 258 257 257 257
271 273 267 265 267 268 275 274 274 271 273 272 271 269 267 265 266 267 267 267 265 263 262 261 261 263 260 260 259 259 257 256 258 259 258 257 258 259 257 257 256 256 254 254 255 256 257 256 257 256 255 255 254 254
273 274 274 273 272 274 275 274 278 278 270 267 268 266 263 263 264 264 263 261 261 261 261 259 257 254 258 257 257 256 258 257 252 255 256 256 256 257 257 256 255 254 253 253 253 253 253 254 253 253 253 253 252 251
265 266 267 266 267 266 265 263 267 269 270 270 261 262 259 260 256 262 261 260 261 260 254 253 255 258 255 254 252 254 253 255 256 255 254 255 257 257 256 255 253 253 254 253 253 252 252 252 253 252 252 251 251 250
264 262 265 267 269 271 262 260 257 260 263 265 259 258 257 259 258 261 261 258 260 259 259 258 257 255 254 253 255 255 253 255 252 255 256 256 255 256 256 254 253 252 253 253 252 251 252 252 252 251 251 250 250 250

GFSWCAN_sfc_thetae_012.txt.gz
Theta_e
302 301 300 304 305 304 304 304 305 306 305 305 305 306 306 307 309 319 321 322 321 314 310 312 311 308 307 310 306 306 305 304 303 300 301 298 296 296 294 295 293 293 292 291 288 288 287 297 299 295 302 304 303 303
302 302 304 304 304 305 305 305 305 305 305 305 305 305 306 307 309 314 320 320 322 316 312 315 314 314 314 315 311 309 309 306 309 304 300 299 292 289 294 294 296 292 297 297 295 296 299 301 304 305 304 304 304 305
304 304 304 304 304 304 304 304 304 304 304 304 305 306 306 307 309 314 319 319 321 315 312 313 311 314 316 315 318 309 309 310 307 308 304 301 291 299 290 296 296 297 298 297 295 298 299 301 303 304 304 304 305 306
304 304 303 303 303 303 302 302 302 302 303 303 304 305 306 307 309 314 319 316 319 313 298 308 313 311 314 315 315 314 312 308 306 309 304 296 296 299 298 298 299 300 298 297 297 300 301 302 303 304 305 306 306 307
303 302 302 302 302 302 303 303 304 304 305 305 305 306 307 308 309 315 316 315 317 314 303 308 310 310 313 312 311 312 311 309 308 304 296 301 300 299 297 298 298 299 299 297 297 301 302 302 303 305 305 305 306 306
302 301 301 301 302 303 303 304 304 304 305 306 307 308 308 309 310 318 312 314 313 315 311 303 307 307 310 312 311 310 310 309 309 308 301 301 299 302 293 297 301 301 302 303 300 303 303 304 305 305 304 301 300 299
301 301 301 301 302 303 303 303 303 304 306 306 307 306 306 308 317 312 308 310 307 312 310 301 303 305 305 308 305 309 310 308 310 304 297 300 301 302 293 297 298 299 301 303 304 304 302 302 300 298 296 294 294 294
302 301 300 301 302 303 303 303 303 304 305 305 305 306 306 306 307 312 310 305 305 308 310 299 298 303 305 301 299 302 301 308 301 297 296 296 296 299 295 296 296 297 298 301 300 303 299 297 294 292 293 293 292 291
301 301 300 301 302 302 303 303 303 303 303 305 305 306 312 309 311 312 303 303 312 310 302 300 296 294 302 295 297 300 303 294 299 296 296 298 291 291 289 290 293 294 294 296 296 296 294 290 290 291 291 290 288 288
301 301 301 301 302 302 302 302 303 303 303 304 311 309 304 306 303 305 308 307 305 304 300 290 296 293 300 296 294 295 298 293 292 294 296 293 289 288 289 290 292 294 296 298 293 291 290 289 290 290 289 290 291 292
301 301 301 301 301 301 301 302 302 304 307 309 305 301 308 303 308 301 296 297 298 294 296 293 294 294 299 294 291 294 290 292 288 292 292 290 286 287 290 290 292 294 294 295 295 294 292 290 289 290 291 292 293 292
301 300 300 300 300 301 301 301 303 306 304 305 305 305 305 300 299 291 290 293 292 290 291 293 293 295 295 299 295 293 290 289 287 294 289 287 286 287 288 289 290 292 293 292 293 292 293 293 293 293 291 289 287 286
299 300 300 300 299 300 300 300 300 301 301 305 300 293 298 292 287 289 285 287 287 289 288 289 288 293 295 298 291 293 288 287 292 287 286 287 287 288 289 290 290 293 293 293 292 292 290 288 288 287 287 286 287 288
298 299 299 299 299 299 299 299 299 300 302 294 291 286 287 286 286 286 287 287 286 287 289 291 288 293 289 291 289 288 285 287 284 283 284 286 287 288 289 290 291 291 288 288 288 288 287 286 286 285 285 285 285 285
298 297 297 297 298 299 298 298 298 300 295 289 290 283 283 285 286 285 286 287 287 288 290 291 290 294 288 287 286 286 284 284 285 286 285 287 287 290 290 291 290 289 286 289 290 288 286 286 286 286 285 285 285 284
297 297 295 297 298 297 297 298 296 296 291 288 287 285 285 285 285 285 285 285 289 288 290 289 286 286 285 287 285 285 284 283 286 287 286 288 288 290 289 290 290 290 290 290 288 287 286 284 284 285 284 282 282 282
296 294 295 297 297 297 297 296 295 289 288 287 285 285 286 285 285 285 286 286 289 287 285 287 286 283 287 285 283 287 285 287 286 286 289 289 288 289 291 290 289 289 288 288 287 286 284 283 282 282 281 281 281 282
293 295 295 296 297 297 295 293 291 288 284 285 285 285 286 286 286 286 287 288 290 288 288 284 286 283 283 282 285 288 286 287 288 288 289 289 289 291 292 291 289 288 286 283 283 282 282 281 281 280 279 279 280 280
294 295 294 295 296 295 290 289 291 284 284 286 286 286 287 286 288 288 287 287 289 292 289 287 285 285 286 289 286 285 285 287 287 287 286 287 288 287 288 287 286 284 283 282 282 282 282 279 278 278 278 278 277 278
294 294 293 293 296 292 286 287 293 286 283 285 286 285 285 285 286 287 287 288 290 290 288 286 286 287 287 288 288 291 291 292 291 288 285 285 286 287 285 284 283 283 282 281 278 278 279 279 277 276 275 275 275 275
294 294 293 295 292 290 286 286 286 286 286 284 285 286 285 287 287 286 286 288 288 287 286 285 284 285 284 284 285 287 289 289 290 291 288 282 283 283 282 281 281 281 279 278 277 275 275 275 275 274 274 274 273 275
292 291 291 290 287 287 286 287 286 288 286 286 287 287 285 284 285 285 288 286 285 285 285 285 285 286 285 282 282 284 284 284 284 283 282 281 279 278 277 278 278 277 276 275 275 273 273 272 271 272 272 272 272 273
291 290 287 286 282 283 281 288 283 283 281 281 284 282 283 284 284 287 283 285 284 284 285 285 283 283 282 282 281 281 282 282 280 278 277 276 275 275 275 274 274 274 273 272 272 272 271 268 270 269 271 271 272 272
290 283 279 280 280 277 283 279 282 281 282 279 278 278 280 281 283 283 279 279 280 282 282 283 283 281 280 279 277 277 278 278 277 277 277 276 273 272 272 271 271 270 269 270 270 269 269 269 267 269 269 269 269 269
280 279 280 276 280 277 276 276 278 279 277 278 277 278 279 281 279 277 276 276 278 278 279 280 280 279 277 276 275 275 276 276 274 271 272 274 273 272 271 270 269 268 268 268 267 267 267 267 267 267 267 267 266 266
276 279 278 278 278 277 276 275 275 277 277 276 277 279 280 280 275 272 274 275 276 276 275 277 277 276 273 274 273 272 272 274 273 270 270 271 270 270 269 268 269 268 268 267 266 265 265 265 265 265 266 267 266 265
275 277 280 282 281 279 279 279 279 279 276 275 279 278 278 273 271 273 276 275 275 274 274 274 275 274 273 272 271 271 271 272 271 270 270 269 269 269 268 266 265 266 266 266 265 264 264 263 264 265 265 267 266 265
279 280 276 279 279 280 277 277 277 276 278 280 279 274 273 273 273 273 273 275 275 274 273 272 272 272 271 271 271 272 271 270 269 269 269 269 268 267 266 267 265 263 263 264 264 264 264 264 264 265 265 264 264 264
279 281 280 274 276 278 278 277 277 279 280 280 278 275 271 271 271 271 273 273 275 275 272 271 270 270 269 268 268 268 269 270 269 266 265 266 266 267 266 266 265 265 265 264 263 263 264 265 264 263 262 262 262 263
279 280 278 274 274 275 279 281 280 280 278 276 275 272 270 269 269 271 272 272 271 269 268 268 269 270 268 269 268 267 266 266 266 265 265 264 264 265 265 265 264 264 263 263 263 263 263 263 263 263 262 262 262 260
280 282 279 278 277 279 277 277 281 279 277 274 273 272 269 268 269 269 268 268 268 269 269 268 267 267 267 266 266 266 266 265 262 262 263 264 264 264 265 264 264 263 263 262 261 261 260 261 261 260 260 259 258 258
276 273 274 274 276 276 275 275 274 276 276 274 269 269 267 268 266 267 266 268 268 267 262 265 267 266 265 265 264 264 258 263 264 263 262 263 264 265 264 264 263 262 262 261 261 260 259 259 259 259 259 258 257 256
273 274 274 274 274 274 272 272 270 271 271 270 267 267 266 267 264 266 267 266 266 266 266 265 266 266 264 262 263 264 261 264 261 261 260 260 259 260 262 263 263 262 260 260 260 260 259 258 258 258 257 256 256 256

GFSWCAN_sfc_thetae_015.txt.gz
Theta_e
301 301 301 302 302 302 303 304 304 305 305 305 305 306 306 307 308 313 326 330 317 309 312 313 311 309 309 310 308 310 307 308 308 302 303 302 300 300 298 299 296 295 294 293 295 289 287 301 301 296 304 305 305 305
301 301 301 300 301 301 302 304 304 304 304 305 305 305 305 306 307 310 324 327 329 317 316 320 319 319 317 317 315 312 310 310 311 308 306 308 297 293 300 294 301 295 300 299 297 298 303 304 303 306 307 305 306 306
301 300 300 300 301 304 304 304 304 304 304 304 305 305 306 307 308 311 325 327 324 319 315 314 313 318 320 320 323 312 316 316 314 318 312 310 296 304 293 299 301 301 302 299 297 300 301 303 305 306 306 306 307 308
301 302 303 303 304 304 304 304 304 304 304 304 305 305 306 307 308 310 323 328 322 317 305 311 317 315 318 319 320 320 319 317 316 315 312 299 299 306 303 303 301 303 302 299 299 302 302 304 305 306 307 308 308 309
302 302 302 302 302 302 303 303 303 303 304 304 305 306 306 307 310 320 323 322 325 317 306 310 315 314 317 317 317 317 317 314 312 309 300 305 307 305 305 304 302 303 299 299 298 304 303 304 306 308 307 307 307 306
302 302 302 302 303 303 303 303 304 304 303 304 304 306 306 308 311 321 315 320 319 323 314 306 314 310 314 316 315 315 316 315 315 312 306 308 305 307 297 298 303 304 305 305 303 306 306 306 307 305 303 302 301 300
302 302 303 303 303 303 304 304 304 304 303 304 305 306 307 308 320 313 309 313 310 320 314 305 307 310 312 313 313 314 315 314 315 311 304 307 305 306 298 298 302 302 303 305 306 307 305 302 300 300 300 299 297 296
301 302 302 303 303 303 304 305 305 306 305 305 306 306 307 305 306 314 310 306 311 312 314 303 301 307 311 308 306 311 310 314 308 303 303 303 303 306 299 301 300 300 302 303 302 303 301 299 298 297 296 293 291 290
301 301 301 301 302 303 303 304 306 305 305 305 306 308 317 317 315 311 302 306 316 312 307 304 297 295 308 302 303 307 311 300 305 298 301 304 294 295 295 295 297 297 298 299 300 299 298 295 294 292 291 291 291 292
301 300 300 301 301 302 302 303 303 304 304 305 315 312 309 311 303 305 310 310 310 311 306 294 303 297 305 300 297 300 300 297 293 296 301 296 294 294 294 295 297 299 300 300 294 292 293 291 291 291 292 293 293 293
300 300 300 300 301 301 302 302 303 305 308 315 309 302 310 304 309 304 300 301 303 298 299 297 299 297 303 297 292 297 293 296 290 295 294 292 290 292 294 295 296 298 299 298 298 296 295 294 293 292 292 293 291 290
300 300 299 299 300 300 301 301 305 309 310 309 310 309 309 306 303 295 291 295 296 292 293 294 294 298 297 304 297 296 291 292 289 297 292 289 289 290 291 292 293 295 295 295 295 294 294 293 294 291 290 289 288 287
299 299 299 299 299 299 299 300 301 301 303 312 306 296 301 295 289 288 285 289 288 291 290 291 290 297 298 300 295 295 290 290 297 290 288 289 289 289 290 291 294 295 295 294 293 293 292 290 289 289 288 286 287 289
298 298 298 298 299 298 299 299 301 304 306 299 294 287 288 287 286 286 287 287 287 288 292 295 291 294 294 291 292 289 287 290 286 285 287 286 288 288 290 293 293 292 291 290 290 289 288 287 285 285 285 285 285 284
297 297 297 297 298 298 298 299 300 303 298 291 292 284 284 285 286 286 286 287 288 290 293 295 295 296 291 289 289 288 285 285 287 287 286 287 288 289 290 292 291 289 288 291 291 288 286 287 286 285 284 284 284 283
298 299 296 297 298 298 298 300 300 298 294 290 288 285 286 286 285 285 285 285 289 289 292 295 288 288 287 289 287 287 287 286 286 288 288 288 288 290 292 292 291 291 292 291 290 288 286 284 285 284 284 283 284 283
298 297 295 297 297 298 299 298 296 291 290 288 286 286 286 286 285 285 286 286 289 288 285 289 286 284 288 287 286 289 286 287 287 288 291 291 290 291 292 292 290 291 291 290 289 286 284 284 285 283 282 282 282 283
296 298 295 297 299 299 297 296 293 290 285 288 286 285 287 287 286 287 288 290 291 289 288 286 289 285 285 284 286 288 288 287 289 290 291 291 293 293 292 292 291 290 287 285 285 284 284 284 283 283 281 281 282 282
294 295 295 296 299 298 292 291 294 285 285 287 288 288 288 288 290 290 289 293 294 293 291 290 287 285 286 288 286 286 288 288 287 287 287 288 287 288 289 289 288 286 285 285 286 286 283 281 281 281 280 280 279 280
295 294 294 296 299 294 288 289 294 288 285 286 288 287 288 288 289 288 288 292 292 292 288 286 284 285 285 285 285 287 289 290 288 287 286 288 289 288 287 287 286 285 284 282 281 282 282 282 280 279 278 278 277 277
296 295 295 298 296 293 288 288 287 289 288 286 288 289 287 290 289 288 288 292 291 287 284 285 284 286 286 285 285 287 286 290 289 291 288 285 286 286 284 285 285 284 283 281 281 278 278 278 277 277 277 277 276 277
294 294 295 295 290 289 288 290 288 290 288 287 287 289 286 286 286 286 290 288 284 282 284 284 284 285 284 282 282 283 284 286 287 285 284 284 282 282 282 282 281 279 278 278 278 277 276 275 274 275 275 275 275 276
293 294 292 290 285 285 282 290 283 284 282 283 286 283 283 284 284 289 284 284 281 283 284 284 283 283 282 282 282 281 282 282 280 279 279 278 278 277 276 276 278 277 276 274 275 274 274 271 273 272 274 274 274 274
292 286 283 283 283 279 285 281 285 284 284 282 281 279 280 282 285 284 279 279 280 281 281 282 284 283 282 280 278 278 280 279 278 278 278 277 274 274 275 273 273 273 273 273 273 273 273 273 271 272 272 271 272 271
283 281 284 280 284 281 280 280 281 282 279 280 279 280 280 283 281 278 276 277 279 278 279 281 280 280 279 278 278 276 277 278 275 273 275 276 275 274 273 272 271 271 272 271 271 271 271 271 271 270 269 270 269 268
278 280 279 280 280 280 279 278 278 278 279 278 279 282 282 280 277 275 276 276 277 277 277 277 279 278 276 276 275 274 274 277 276 272 272 273 273 273 272 272 272 271 271 271 269 269 269 269 268 267 268 269 268 268
277 278 281 284 282 281 280 281 282 280 278 278 279 279 279 275 274 274 277 277 277 276 277 277 278 277 275 275 274 274 275 274 273 272 273 273 272 272 271 269 268 268 269 269 268 268 267 267 267 267 267 269 269 268
280 281 277 280 281 282 279 279 278 277 279 281 281 276 275 275 274 275 276 277 277 277 276 275 275 275 274 274 275 275 275 274 273 273 273 273 272 271 270 270 269 266 267 267 266 266 266 266 266 267 267 266 266 267
280 281 282 277 279 280 279 278 278 280 281 281 278 277 274 273 273 275 275 276 278 278 276 274 274 275 274 273 273 273 273 272 271 268 268 269 270 270 270 269 269 269 268 268 267 267 266 265 265 265 265 265 266 266
280 282 281 278 277 277 279 281 281 281 281 280 279 275 274 272 272 275 275 275 274 272 272 272 273 273 271 272 271 270 270 269 268 267 266 266 267 268 268 268 267 268 267 267 266 266 266 266 266 266 265 265 265 264
282 283 280 280 278 278 280 281 282 281 280 277 277 276 273 271 271 272 272 272 272 272 272 271 270 271 270 269 268 268 268 269 266 266 265 266 267 267 268 267 267 267 266 266 265 265 264 263 264 264 264 263 262 261
280 276 277 276 278 279 280 279 279 279 279 277 274 274 272 273 269 270 270 272 271 270 267 270 269 268 268 269 268 269 262 266 267 266 265 266 266 267 267 267 267 266 265 264 264 264 264 262 262 262 262 262 261 259
278 279 278 277 277 276 277 277 276 274 275 273 271 272 271 271 266 269 271 271 269 269 268 269 269 269 268 266 267 267 266 268 266 265 265 264 262 263 263 266 266 265 264 264 263 263 263 262 261 261 260 260 259 259

GFSWCAN_sfc_thetae_021.txt.gz
Theta_e
299 299 299 299 299 300 300 299 299 301 302 303 303 304 304 304 304 303 301 306 307 306 306 310 309 307 308 305 297 306 300 300 294 291 288 287 284 288 288 295 290 286 284 281 283 282 281 300 297 289 296 298 299 298
299 299 299 299 299 300 300 301 301 301 302 303 303 304 304 304 304 304 299 307 312 305 308 314 314 315 314 313 307 306 303 303 303 295 293 290 286 288 287 283 298 287 292 287 289 287 298 298 298 302 300 298 298 299
299 299 299 299 300 300 301 301 301 302 303 303 303 304 304 304 304 304 302 309 309 304 303 309 309 312 317 318 320 304 306 310 307 309 298 294 289 287 286 286 291 296 300 291 291 296 298 298 299 301 303 302 303 303
299 299 299 300 300 300 301 301 302 302 303 303 303 303 303 304 306 306 303 309 309 306 296 304 316 310 315 318 320 317 314 315 313 309 294 291 291 300 287 293 290 296 297 295 293 296 299 301 302 303 302 303 298 297
300 300 300 300 301 301 301 302 302 302 303 303 303 303 305 305 307 307 307 309 311 306 298 300 311 313 314 315 314 315 314 311 305 295 288 290 293 295 289 291 287 298 295 288 285 299 298 298 300 301 298 297 297 295
299 300 300 300 300 300 300 301 302 303 303 303 303 304 304 305 306 308 301 309 311 311 304 293 306 308 310 313 312 312 312 309 308 300 294 298 302 294 286 284 298 300 301 302 299 302 299 297 297 297 295 294 295 293
299 299 299 299 300 300 300 301 302 302 303 304 304 305 305 305 307 303 304 308 309 308 301 292 292 305 311 310 307 308 310 307 305 301 293 294 296 299 285 285 297 300 301 300 301 300 296 297 293 294 293 292 293 292
298 299 299 299 300 300 301 302 302 302 303 304 304 304 305 305 307 306 310 308 307 307 304 292 291 297 309 296 295 305 299 300 299 296 294 289 294 288 286 295 297 299 300 297 297 298 296 294 293 292 293 292 291 289
301 301 300 300 300 301 302 302 302 303 304 304 305 305 306 306 305 307 307 304 312 305 291 291 290 290 305 297 295 298 300 290 297 288 288 292 285 289 296 295 296 297 297 296 297 295 293 291 291 290 292 291 289 289
301 302 302 302 301 301 301 302 302 303 304 305 307 305 297 306 307 307 306 302 298 300 296 290 296 291 299 290 290 289 290 287 286 291 294 288 283 293 295 297 297 297 298 296 290 288 290 290 290 290 290 290 287 287
301 301 302 302 302 302 302 302 303 304 304 306 302 296 304 306 304 297 289 290 292 288 291 291 293 291 299 290 289 290 287 287 284 287 285 282 282 291 294 294 295 296 296 297 296 294 293 292 290 287 287 286 284 283
301 301 301 302 303 303 303 303 304 307 307 306 305 306 304 302 294 288 286 287 287 286 288 289 291 296 292 298 287 290 286 286 282 290 284 284 287 291 292 292 293 294 293 293 293 292 291 290 289 287 285 283 282 282
299 300 300 301 302 303 304 305 305 306 306 305 296 291 294 288 286 284 283 286 285 286 288 288 287 290 292 294 288 289 287 285 289 285 284 283 290 290 291 292 292 293 291 290 289 289 288 286 285 285 284 285 282 282
299 299 299 300 300 301 302 302 302 304 302 291 287 284 285 283 283 282 283 284 285 285 287 289 287 287 287 287 286 285 285 286 284 282 281 285 288 289 291 292 291 289 286 285 285 284 283 283 283 283 283 282 279 279
298 298 299 298 300 300 300 300 301 299 292 285 286 281 281 284 285 285 285 285 286 288 287 288 287 290 286 286 286 285 284 282 283 281 284 287 288 289 290 288 287 286 285 285 285 283 282 282 281 281 280 280 280 278
299 297 295 298 299 300 300 300 298 294 288 286 284 284 285 284 284 284 285 285 288 286 288 287 286 285 284 285 285 284 281 279 282 284 285 287 287 288 288 287 288 288 286 285 285 284 283 281 280 280 280 278 276 275
298 293 297 299 299 299 300 296 293 288 285 284 283 285 285 284 283 284 285 285 288 287 285 286 284 282 285 284 281 283 280 282 284 284 286 287 288 287 287 287 287 286 285 284 284 284 283 283 280 279 279 280 279 277
293 295 298 299 300 298 296 296 288 285 283 284 282 284 285 285 285 285 285 287 287 285 285 283 286 283 280 279 278 282 284 284 285 286 287 289 289 289 289 289 288 286 284 283 283 283 282 280 280 278 279 279 278 277
294 295 297 299 298 293 286 288 290 283 283 284 285 286 286 285 286 287 287 288 288 288 287 285 280 278 278 280 279 281 282 283 284 285 285 286 288 288 288 286 285 284 283 283 282 280 279 279 277 276 277 276 274 274
296 296 296 297 298 287 284 284 291 285 283 284 285 284 284 284 286 286 286 285 286 284 281 279 278 279 279 280 281 281 283 284 285 283 283 284 285 285 285 285 284 283 281 281 281 279 278 277 277 277 275 274 272 268
294 293 296 296 290 289 285 283 284 285 285 284 284 284 283 284 284 284 282 283 280 280 278 280 280 280 281 281 281 282 281 281 279 279 284 282 283 283 283 283 282 282 280 278 276 275 274 273 273 274 269 266 265 264
290 296 287 289 285 284 283 285 283 284 283 282 282 283 279 278 280 283 281 278 277 278 280 279 280 280 279 278 279 280 281 281 280 278 278 277 276 275 276 276 275 273 274 274 274 272 272 272 272 271 266 264 266 266
293 291 285 284 277 276 275 283 277 280 274 277 280 278 280 277 282 284 277 278 277 280 281 281 280 280 278 278 278 279 279 278 275 275 274 274 273 273 272 272 273 272 272 273 274 273 272 272 270 267 267 265 263 263
291 284 277 277 277 276 276 274 280 278 276 279 278 275 278 278 279 275 274 276 277 278 279 279 281 278 276 275 273 274 276 276 274 274 275 273 271 271 271 270 270 271 272 272 271 270 270 266 267 266 261 259 259 258
276 275 277 271 277 273 271 274 273 274 276 278 273 275 278 279 271 274 273 274 272 273 274 277 275 274 273 273 273 273 274 274 272 270 271 274 272 271 270 270 269 269 269 266 265 262 262 261 259 258 259 256 257 257
274 278 277 278 278 277 277 275 276 276 277 276 277 279 280 276 272 269 272 272 270 269 271 273 274 271 271 272 271 270 271 274 272 269 270 270 269 268 267 266 266 264 265 262 258 257 257 257 255 255 255 259 260 261
275 277 280 283 282 280 279 280 280 278 275 272 277 277 272 272 266 271 273 273 272 271 274 273 273 272 272 272 272 271 271 271 270 270 271 270 270 268 264 259 258 261 261 259 256 254 254 254 254 254 255 259 258 257
279 280 276 279 280 281 277 277 273 272 275 278 277 270 267 268 266 272 273 276 275 273 273 272 272 272 271 271 271 269 268 269 269 269 270 269 267 263 262 260 261 266 263 260 257 259 257 257 254 253 254 254 253 254
278 281 276 276 278 278 277 277 276 277 278 278 274 271 268 270 271 272 273 275 274 273 271 271 272 271 269 268 268 267 265 264 261 258 257 257 260 260 260 258 259 258 257 257 262 264 262 260 261 257 254 258 259 258
277 277 274 270 272 270 274 278 276 278 278 277 272 271 270 268 270 272 271 271 270 268 268 269 268 267 265 265 263 263 261 259 259 256 253 253 254 259 259 262 258 256 258 255 255 257 261 258 258 254 254 256 258 255
280 278 272 272 270 276 277 280 278 277 273 271 270 267 265 265 266 269 268 269 267 269 268 263 264 263 262 261 259 257 257 257 257 259 257 255 256 256 261 262 261 256 257 260 258 254 253 253 257 256 253 253 255 254
277 275 268 269 272 277 279 277 277 275 273 270 265 264 263 265 260 262 267 268 265 265 266 264 262 261 258 258 258 257 258 256 260 257 257 255 254 254 254 254 254 260 260 258 256 253 255 257 256 257 255 253 251 249
273 271 270 269 270 270 269 268 271 268 267 266 265 265 264 262 259 263 267 266 262 260 260 262 264 264 262 259 258 258 262 259 260 264 265 264 260 258 253 254 253 252 252 251 252 252 254 257 258 257 254 250 250 252

GFSWCAN_sfc_thetae_024.txt.gz
Theta_e
298 299 299 299 299 299 300 300 300 300 300 301 301 302 301 303 305 304 302 306 301 299 302 308 304 300 302 303 297 301 300 300 293 289 288 285 282 288 287 291 288 285 282 278 283 278 279 298 295 288 291 296 297 297
299 299 299 299 299 299 299 300 300 300 301 301 301 301 301 303 305 305 299 306 307 300 302 309 308 309 308 308 305 302 301 302 303 295 291 289 285 284 285 283 295 286 289 285 287 286 295 296 297 300 298 297 297 298
299 298 299 299 299 299 299 299 298 299 301 301 302 301 303 304 305 304 301 305 305 299 302 304 304 310 315 313 315 302 302 307 306 304 294 292 286 285 283 283 288 294 298 290 290 294 295 296 299 300 301 300 299 300
299 299 299 299 300 300 299 300 300 301 301 302 303 303 304 304 304 304 301 304 305 304 294 300 313 309 315 319 318 313 310 310 310 303 293 289 288 294 284 290 288 293 296 293 291 295 298 299 300 299 296 295 294 294
299 299 299 300 300 300 300 301 301 301 302 303 303 304 304 304 305 304 304 306 309 303 295 300 308 311 314 313 317 317 312 307 300 292 285 287 289 292 284 288 285 295 293 288 286 296 295 295 297 297 295 294 294 292
299 299 299 300 300 300 301 301 301 302 302 303 303 304 304 304 304 304 297 306 308 309 299 294 307 308 311 313 312 313 311 309 305 297 288 294 300 291 283 282 295 298 299 298 298 299 296 294 294 295 293 292 292 291
300 300 300 300 300 301 301 301 302 302 302 303 303 303 304 304 305 299 297 306 308 309 298 293 293 305 308 307 305 307 309 306 304 298 290 292 295 294 282 284 296 297 298 297 297 297 293 294 290 292 292 291 291 290
299 300 300 300 300 300 300 301 302 302 302 303 303 303 304 304 306 302 306 307 308 305 304 290 291 295 306 292 295 303 297 299 297 295 293 288 293 286 285 293 296 295 295 294 294 296 294 292 291 290 291 290 289 289
298 299 299 299 300 300 300 301 302 303 303 303 303 304 303 302 300 302 307 306 308 304 293 289 288 289 301 293 291 294 295 290 295 287 288 291 287 285 292 294 295 295 294 292 293 292 291 290 289 289 289 290 288 286
298 299 299 299 299 300 301 301 302 303 304 304 303 301 294 301 307 307 303 301 298 297 292 288 294 290 296 286 289 286 290 287 285 288 291 286 283 291 293 295 296 295 294 293 289 287 288 287 288 288 289 288 287 284
299 299 299 299 300 301 301 302 302 303 304 302 300 296 305 306 304 295 289 290 291 287 290 290 289 291 297 288 288 288 286 286 282 285 284 283 283 289 292 292 293 295 295 295 294 292 291 290 288 286 285 284 283 283
302 302 301 301 301 301 302 302 303 304 304 305 304 305 303 297 290 288 286 286 287 285 288 288 290 295 293 298 290 288 285 284 284 289 281 281 286 290 291 291 291 292 292 292 293 291 290 289 287 285 283 282 282 283
302 302 302 302 302 302 303 303 304 304 305 302 296 289 292 286 284 280 281 284 284 285 287 287 287 290 291 293 287 287 286 285 283 280 281 284 289 291 291 290 290 290 289 289 288 288 287 286 285 283 282 282 282 282
300 301 301 302 302 302 302 302 301 301 296 288 286 282 284 282 281 282 283 284 285 285 286 286 286 288 286 287 286 285 285 286 281 275 280 285 288 289 290 289 288 287 286 285 285 284 283 283 282 283 281 280 279 278
299 299 299 299 300 300 300 299 299 296 289 284 284 280 281 284 285 285 285 285 286 287 286 287 287 289 286 286 285 285 283 281 281 280 283 286 288 289 288 287 285 284 283 283 283 282 282 282 281 280 280 280 279 277
298 298 297 299 300 300 299 298 295 292 287 283 284 283 284 283 283 284 285 285 288 286 287 287 285 283 283 285 284 282 281 278 281 283 285 287 287 286 286 286 286 285 284 284 283 282 281 280 280 280 279 277 276 275
297 293 297 299 299 299 299 295 290 286 285 283 282 285 284 284 283 284 284 285 288 286 285 284 281 281 285 282 279 282 278 281 283 284 285 287 286 286 287 286 285 285 284 284 283 282 281 280 280 278 277 278 278 276
290 292 299 300 298 297 296 293 287 285 283 284 282 283 284 284 284 285 285 287 286 285 285 283 285 279 276 276 275 278 281 284 284 285 286 288 287 287 288 287 287 285 284 284 283 283 280 279 279 278 279 279 277 277
294 295 298 298 296 289 285 287 288 282 283 284 284 285 285 285 285 284 285 287 288 287 286 282 278 276 275 277 277 278 280 281 283 284 285 286 287 287 286 285 285 284 283 283 281 279 278 278 277 277 277 276 273 273
296 296 296 296 294 284 284 284 289 284 282 284 285 284 284 284 285 283 282 282 283 282 279 276 275 276 276 277 279 279 279 280 283 283 283 283 284 284 284 283 281 281 280 279 278 277 276 275 276 275 274 273 271 268
291 291 293 290 286 285 282 280 282 283 284 283 282 282 282 283 280 278 278 281 278 278 275 278 276 277 279 279 279 280 279 278 276 277 280 277 278 278 277 277 278 277 275 274 273 273 272 272 273 273 271 270 270 269
287 293 281 285 281 281 280 282 281 281 282 281 280 281 278 277 278 278 278 275 276 277 279 278 277 276 276 276 277 277 278 277 276 275 275 275 273 273 274 274 273 273 273 272 272 271 271 271 272 271 269 268 269 268
289 286 281 278 274 273 273 280 274 279 273 274 276 276 275 277 280 280 274 276 276 278 279 277 276 277 275 276 276 276 276 275 274 273 272 272 272 272 271 271 272 271 271 271 273 271 270 270 270 268 266 266 264 262
287 279 277 272 273 272 271 272 278 276 276 277 273 275 276 275 277 272 271 272 275 275 276 276 277 274 274 273 271 271 273 273 271 271 272 271 269 269 269 269 268 268 269 269 267 266 266 264 264 264 261 257 256 255
274 273 272 268 271 270 267 268 272 275 275 270 271 273 275 274 268 268 269 270 270 270 271 273 273 272 269 269 270 270 272 272 270 268 269 272 270 269 268 267 266 266 267 263 260 259 258 258 256 256 256 251 257 256
273 275 274 277 276 276 276 274 274 274 272 272 275 277 274 267 262 264 270 266 268 267 268 269 267 269 269 270 268 268 269 272 270 267 268 269 268 265 264 263 262 261 262 255 254 252 253 252 251 252 251 256 259 256
274 271 278 280 281 277 275 276 274 270 266 267 271 273 271 263 263 268 272 271 270 268 271 271 271 270 270 270 271 270 269 270 269 268 269 268 268 266 260 256 256 260 258 256 252 252 253 252 251 250 249 249 250 250
278 277 273 276 273 275 268 267 264 267 267 273 271 265 262 259 263 270 272 274 272 272 272 271 271 270 268 267 266 265 264 266 268 268 267 266 265 264 262 262 260 266 258 254 253 257 256 255 257 254 253 250 253 250
277 278 272 271 270 273 270 269 268 273 276 272 265 265 263 268 268 268 270 272 272 270 268 267 268 266 265 265 263 262 263 261 257 256 253 252 253 256 260 261 259 258 255 253 259 262 259 256 259 255 251 251 257 253
271 268 267 262 265 267 270 269 272 274 274 267 268 268 267 266 268 269 268 268 267 265 264 264 264 264 261 256 257 259 257 256 258 255 251 250 253 256 254 254 255 255 255 251 255 257 258 252 254 254 253 252 249 250
274 266 265 265 267 274 276 276 268 270 263 264 263 260 259 262 263 267 267 265 267 264 263 261 258 254 257 256 253 251 253 253 256 255 254 251 250 249 250 250 250 250 251 252 252 252 252 250 250 252 253 254 251 249
264 266 264 265 269 275 274 273 274 272 264 261 259 255 258 257 256 261 264 261 262 262 260 257 256 259 254 251 250 251 256 255 255 256 256 254 256 254 254 251 248 248 248 247 246 247 247 250 252 254 255 253 252 248
263 261 260 264 267 266 263 264 268 264 262 261 260 260 259 258 257 260 264 261 258 254 254 254 255 257 260 258 255 254 256 253 252 258 258 259 256 257 252 249 249 250 251 250 248 246 250 250 249 249 251 252 252 249

GFSWCAN_sfc_thetae_027.txt.gz
Theta_e
301 301 301 300 300 300 300 299 300 300 300 300 300 301 301 302 303 300 297 304 299 294 297 304 303 299 299 297 292 297 300 299 289 289 287 283 282 287 285 289 287 286 282 278 278 276 279 294 294 287 290 294 296 295
298 298 298 298 298 298 299 299 299 299 299 300 300 301 301 301 302 302 296 305 306 298 298 304 303 304 304 303 301 300 300 300 299 293 290 287 283 281 285 283 292 285 288 285 286 285 293 295 293 295 297 296 295 296
299 299 299 299 299 299 299 299 299 299 299 300 300 301 302 302 302 302 300 303 302 296 297 300 303 307 310 308 311 301 300 305 302 304 296 291 287 286 283 283 287 291 295 289 288 292 294 294 297 298 296 297 298 298
299 299 299 299 299 299 299 299 299 299 300 300 301 301 301 302 303 303 301 304 301 299 292 297 313 307 313 312 311 308 309 308 304 302 293 286 287 292 283 289 287 292 295 291 289 293 296 297 296 294 294 294 293 292
299 299 299 299 299 299 299 299 299 300 300 301 301 301 302 303 304 303 303 303 305 299 293 295 303 309 312 311 312 310 309 305 297 293 285 289 291 292 284 287 283 294 292 288 286 296 294 295 295 295 293 292 292 291
299 299 299 299 299 299 300 300 300 300 301 301 301 302 304 303 303 301 294 301 306 306 296 288 304 307 308 310 310 307 308 304 302 297 288 293 299 293 288 283 294 296 296 296 295 296 294 293 293 293 292 291 291 290
299 299 300 300 300 300 300 300 301 301 302 302 302 303 303 303 301 295 293 302 304 306 297 290 292 304 307 305 303 305 305 302 303 299 288 290 294 292 281 284 294 296 296 295 294 294 291 291 289 291 291 290 290 289
299 300 300 300 300 300 300 301 301 302 302 302 302 303 302 303 302 299 307 305 306 302 301 289 289 296 304 293 295 301 298 299 299 295 292 290 293 286 286 292 293 294 294 293 292 294 293 291 290 289 289 289 287 287
300 300 300 300 300 301 301 301 302 302 302 303 303 303 302 300 298 300 305 306 308 303 292 287 287 288 300 295 293 293 297 291 295 288 289 293 287 289 290 293 292 294 293 290 291 290 290 288 287 287 288 287 286 285
299 299 299 299 299 300 301 301 302 302 302 303 301 297 292 300 304 305 302 298 298 298 294 287 293 290 298 290 288 290 288 287 286 287 292 287 286 290 290 294 294 293 292 292 287 286 287 286 286 287 287 287 286 284
299 299 299 299 299 300 300 301 302 302 302 300 295 294 302 304 300 295 290 289 290 287 290 291 289 290 297 290 288 289 286 285 283 287 288 285 284 287 289 291 293 294 294 293 293 291 290 289 288 285 284 284 283 283
299 299 299 299 300 301 301 302 302 302 301 302 303 304 302 297 291 286 285 286 287 286 287 288 289 294 291 297 289 288 285 285 284 289 282 284 286 288 288 288 290 291 291 291 291 290 288 287 286 284 283 283 283 282
299 299 300 300 301 302 302 302 303 304 304 302 295 290 292 285 284 281 282 284 284 285 287 287 287 288 288 290 286 284 282 283 286 279 279 283 289 290 289 289 289 290 290 289 288 287 286 284 284 283 282 282 282 281
301 301 301 301 301 301 302 302 302 301 297 288 286 281 283 280 281 282 283 284 285 285 286 286 286 287 285 286 285 285 284 286 281 276 280 285 288 288 288 289 288 286 286 285 285 284 283 283 282 282 282 281 279 278
300 300 300 301 301 301 301 301 300 297 290 285 285 279 281 284 284 284 285 285 285 287 286 287 287 288 285 285 285 285 283 280 281 280 283 286 288 287 287 286 285 283 283 283 284 283 282 282 280 279 279 279 278 277
299 298 297 299 300 300 299 298 295 293 286 284 284 282 283 283 283 284 284 285 288 286 287 287 284 284 283 284 282 279 279 277 280 282 284 286 286 286 285 285 284 284 284 283 283 282 282 280 280 279 279 277 275 274
298 294 297 299 299 299 299 293 290 286 284 282 281 285 284 284 283 284 284 285 288 286 284 282 281 280 284 279 277 279 277 280 282 284 285 285 285 285 285 285 284 284 283 283 282 281 280 279 278 278 277 277 277 275
290 293 298 299 297 296 294 292 287 285 282 284 281 283 282 282 282 282 283 286 286 285 284 282 283 276 273 272 273 276 278 280 284 284 285 285 285 285 286 285 286 284 283 282 281 280 279 279 279 278 278 278 276 276
293 294 296 297 294 289 287 287 288 282 282 284 284 284 284 282 282 282 282 284 285 286 283 280 275 273 273 275 275 276 276 277 281 283 282 283 284 284 284 284 284 283 282 282 280 278 277 278 277 276 276 276 274 273
295 294 294 294 294 285 284 283 288 284 282 283 284 281 281 280 280 279 279 280 281 279 276 273 272 274 274 276 278 277 277 278 279 279 277 277 278 279 279 279 278 278 277 277 276 276 275 275 275 274 274 273 273 272
290 290 290 288 284 284 281 280 283 284 284 283 283 281 281 280 277 276 276 279 277 276 274 275 274 276 278 277 277 278 276 276 274 276 276 274 276 276 276 277 277 276 274 273 272 271 272 271 272 272 271 270 271 271
285 290 279 283 280 280 279 281 280 280 280 279 278 279 275 274 271 274 276 274 273 274 276 275 275 275 275 274 275 276 276 275 275 274 273 273 271 272 272 273 273 271 271 271 271 270 270 271 271 270 268 268 270 268
287 284 279 278 274 274 273 279 274 277 272 272 274 273 272 271 275 277 271 274 273 276 276 275 275 275 273 274 274 274 274 273 272 271 271 270 270 269 269 268 269 268 267 268 270 269 267 267 266 263 262 262 261 259
285 276 271 269 272 266 270 271 276 275 273 270 272 275 275 273 272 268 268 270 272 274 274 274 274 272 272 271 269 270 271 271 270 269 271 269 267 266 267 266 266 266 266 266 265 263 262 260 261 260 257 254 253 253
274 272 270 267 268 268 265 266 271 271 267 266 272 273 274 270 264 264 265 267 267 267 269 270 271 270 266 267 268 269 271 270 268 266 267 270 267 267 266 265 264 265 265 261 257 256 255 253 252 251 251 249 254 253
269 275 272 276 272 271 270 270 265 268 264 266 270 275 268 262 260 261 267 264 266 264 264 265 263 266 267 268 267 267 267 270 268 265 266 266 265 261 259 260 260 261 261 254 252 251 252 251 250 252 250 253 253 251
267 267 277 278 274 272 268 266 269 267 264 269 266 262 263 258 258 267 270 270 269 267 271 270 269 268 267 267 267 267 267 268 267 266 266 265 264 263 259 255 257 261 257 255 253 253 254 254 252 252 252 247 247 249
277 272 268 267 268 269 262 261 263 264 265 272 267 259 256 256 260 268 269 272 270 270 269 268 267 266 263 263 261 262 264 265 264 264 263 262 262 261 260 261 261 264 259 256 253 249 250 254 253 253 252 253 253 249
272 269 269 264 264 267 269 265 265 271 274 269 259 261 261 265 264 265 268 270 270 267 265 263 263 261 261 262 260 259 259 257 255 252 249 249 250 254 254 252 252 252 251 251 257 262 263 258 256 253 254 252 255 253
272 265 265 260 264 267 268 264 266 266 267 263 266 266 265 263 266 268 267 265 264 262 259 259 258 258 252 253 253 258 257 253 254 253 250 250 253 254 248 248 248 248 248 248 249 251 255 250 251 250 249 250 247 247
265 263 264 263 266 270 268 262 266 263 258 257 256 256 257 261 261 265 264 262 262 260 260 257 254 250 252 251 250 249 251 254 254 255 254 252 251 251 253 254 248 246 246 246 244 244 245 246 245 246 249 250 251 250
262 258 262 261 268 271 274 269 269 260 259 258 257 253 257 255 254 260 262 259 258 255 256 253 253 255 254 251 249 250 254 252 251 250 250 250 250 250 249 249 247 246 246 246 244 244 245 245 246 245 245 246 248 249
259 257 257 259 263 264 261 263 264 261 259 259 258 257 256 256 254 258 261 258 256 253 252 250 251 253 256 254 253 250 253 250 248 254 255 256 254 254 249 247 246 245 247 246 245 246 246 246 245 244 245 247 248 249

GFSWCAN_sfc_thetae_033.txt.gz
Theta_e
302 302 302 302 302 302 302 302 302 302 302 302 303 302 303 303 303 298 295 299 294 291 294 297 298 295 295 295 290 294 295 296 292 288 289 289 287 291 290 292 290 290 288 287 285 286 286 296 294 293 299 297 299 299
302 302 302 301 301 302 302 302 302 302 302 303 302 302 302 302 303 300 294 300 299 293 293 300 301 302 300 301 297 298 296 295 296 293 291 289 288 287 290 288 293 291 294 291 293 294 300 297 300 299 298 299 298 300
301 302 301 301 301 301 301 302 302 302 302 301 302 302 302 302 302 299 295 296 294 290 292 296 295 303 304 303 306 296 298 303 300 303 295 294 289 290 287 288 291 293 294 294 294 297 296 298 298 300 299 300 299 301
299 300 301 301 301 301 301 301 301 301 301 301 302 302 302 302 302 299 295 297 295 292 288 293 305 302 309 306 305 305 304 305 304 302 294 291 291 295 290 293 293 295 295 292 293 295 298 299 300 301 298 299 298 298
298 298 299 299 300 300 300 300 301 301 301 301 302 302 302 302 301 298 298 298 297 290 288 291 299 303 306 307 306 306 305 303 300 296 290 293 292 293 290 292 291 296 295 292 292 299 299 299 301 298 297 297 297 294
299 299 298 299 299 299 299 300 300 300 300 301 301 301 301 301 300 297 290 298 300 299 290 286 299 300 305 309 306 305 305 303 302 297 292 295 299 296 290 290 297 298 300 300 298 299 296 294 295 296 295 295 294 293
299 299 299 299 299 299 299 299 299 299 300 300 300 300 300 300 298 293 291 297 301 298 293 287 289 298 303 305 305 304 305 303 302 298 293 295 296 297 289 290 297 297 299 297 296 297 295 294 294 294 293 292 292 291
299 299 299 299 299 299 299 299 299 299 299 300 300 301 301 301 299 295 301 303 304 298 296 287 287 291 301 294 295 300 297 299 299 297 293 293 293 289 289 293 294 294 294 294 293 293 295 292 291 290 290 290 288 287
299 299 299 299 299 299 299 299 299 300 300 300 300 300 298 296 293 295 302 302 304 298 287 286 286 285 300 295 294 295 295 291 297 291 293 293 289 290 293 293 293 294 293 290 290 291 291 290 289 288 289 289 287 287
299 299 299 300 299 299 299 299 300 300 301 301 298 293 288 295 302 301 297 294 294 295 296 288 293 289 297 290 289 290 290 289 289 291 293 290 289 291 292 293 295 293 292 292 289 287 287 287 287 288 288 289 288 287
300 300 300 300 300 299 299 300 300 301 300 297 293 291 296 302 299 292 286 286 289 286 291 290 291 290 297 290 288 288 287 287 287 290 290 287 288 289 291 293 293 293 294 294 295 292 291 290 288 287 287 287 287 286
300 300 300 300 300 301 300 300 300 299 297 298 298 299 299 294 289 285 285 285 284 286 287 288 290 294 290 297 289 287 285 286 286 289 288 285 286 289 290 290 291 292 292 291 291 289 289 288 287 286 285 285 284 282
299 299 300 300 301 301 301 301 301 301 301 301 294 289 290 285 284 282 280 284 284 285 286 287 286 288 290 292 286 286 285 285 286 284 282 283 287 288 288 288 287 288 288 287 286 286 285 284 285 283 282 282 282 281
299 299 300 300 300 301 301 300 300 299 296 287 286 279 282 280 281 282 282 283 285 285 285 286 286 287 286 286 285 285 284 285 282 279 279 282 285 285 286 286 286 284 284 284 283 283 283 282 282 282 282 282 281 280
299 299 300 300 300 301 301 299 298 296 290 285 284 279 281 284 284 284 285 285 285 286 286 286 287 288 285 285 284 284 282 277 278 276 280 283 285 286 285 284 284 283 283 282 282 281 281 281 280 280 280 280 280 278
300 299 299 300 300 299 298 297 295 292 286 284 280 279 281 281 278 280 280 282 286 285 286 287 285 283 280 279 276 274 276 272 274 277 280 284 284 283 283 283 283 283 283 282 282 282 281 279 278 277 278 277 277 276
298 294 298 298 298 298 298 293 290 285 283 282 279 279 278 278 276 278 279 280 284 286 282 281 275 275 280 274 272 274 271 274 275 277 277 283 283 283 283 283 283 282 282 281 280 280 279 279 278 277 276 276 276 275
293 298 299 298 298 296 293 290 285 284 279 280 277 277 277 277 276 277 279 281 284 283 281 276 278 272 270 269 270 272 274 275 278 276 276 278 280 280 281 280 281 281 280 280 280 280 279 278 277 276 276 276 276 276
297 298 298 298 296 291 286 286 286 277 277 279 279 279 278 275 277 278 279 280 281 282 279 276 271 269 270 272 271 273 273 274 276 275 275 276 277 278 278 278 277 277 277 277 276 276 275 276 276 277 277 276 274 275
295 296 298 297 296 287 284 283 287 282 278 279 279 276 275 274 275 275 276 277 277 276 272 270 269 270 271 273 274 273 274 275 277 273 272 273 275 274 274 274 274 274 274 273 273 273 273 272 273 273 273 273 273 272
290 289 291 290 286 285 283 283 283 283 283 280 280 277 274 275 273 271 272 275 272 271 269 272 272 273 274 274 275 275 273 272 271 272 271 269 271 272 272 272 272 272 270 270 269 268 268 268 269 270 270 269 270 270
285 288 281 283 282 281 280 280 281 280 279 277 276 277 273 269 267 270 273 269 270 271 272 272 272 272 272 272 272 273 273 272 271 270 269 269 267 267 267 268 268 267 267 267 266 265 265 265 266 266 266 266 267 267
285 283 279 278 275 274 273 279 274 276 271 270 273 272 269 268 270 274 267 269 270 272 274 273 272 273 271 271 271 271 271 270 268 267 267 266 266 265 265 264 265 265 264 264 265 264 262 262 263 262 263 263 263 263
283 274 268 267 271 266 268 269 275 273 271 270 273 268 270 267 269 266 265 267 269 270 270 271 271 270 269 268 267 267 269 269 267 266 267 266 264 264 264 264 264 264 263 264 263 261 260 259 257 260 259 260 259 260
273 272 269 265 266 266 264 264 265 269 265 265 267 268 265 267 262 261 263 266 267 265 266 268 269 268 265 265 265 266 267 267 265 263 264 265 264 265 264 263 263 263 263 262 260 260 260 259 259 259 259 258 258 258
269 271 270 263 265 267 264 269 269 262 266 267 267 268 262 261 259 261 266 265 266 266 265 265 265 265 265 266 265 265 266 267 266 263 263 264 263 261 261 260 260 261 261 259 259 259 259 259 258 258 258 259 255 256
267 265 272 274 271 268 265 263 266 264 264 265 262 258 258 255 256 264 268 267 266 265 265 264 265 265 265 265 265 265 265 265 264 263 264 263 263 262 261 259 258 260 260 258 257 257 257 257 257 257 257 258 258 256
271 268 264 263 265 266 262 260 260 261 263 268 262 256 253 255 259 264 267 267 266 265 264 263 263 263 262 262 263 263 262 262 262 262 262 262 260 259 258 257 256 257 256 256 257 257 258 258 257 257 256 256 255 256
264 261 266 260 262 263 264 261 261 265 267 260 256 256 259 262 262 262 266 267 267 264 260 260 260 258 259 259 257 257 258 259 259 256 255 255 256 259 257 256 255 255 254 255 257 260 261 259 258 256 255 254 254 253
263 262 263 258 259 260 257 259 256 256 262 260 264 264 262 261 263 265 264 264 262 258 255 255 254 257 256 257 257 258 256 254 256 257 256 255 256 257 255 255 255 255 253 253 253 254 255 254 255 254 253 253 253 253
262 261 263 263 264 260 258 255 252 255 255 255 254 255 256 259 261 263 262 259 256 254 257 256 255 252 256 254 255 254 256 256 250 253 254 254 254 254 255 254 253 252 252 252 251 252 252 253 252 251 252 251 250 250
259 256 261 261 263 262 261 258 253 255 253 255 253 250 253 254 253 258 259 257 255 256 253 252 253 256 254 253 251 252 251 253 254 253 252 254 255 256 255 254 252 251 252 252 251 251 250 251 251 251 250 250 249 249
256 256 258 260 261 261 261 260 259 258 255 255 255 253 250 254 254 257 258 253 256 256 255 254 254 252 252 251 253 253 252 253 251 253 254 255 253 254 254 253 252 251 252 252 252 250 251 251 251 251 250 249 249 249

GFSWCAN_sfc_thetae_036.txt.gz
Theta_e
303 302 301 301 301 302 302 302 301 301 301 301 302 301 304 303 303 301 299 305 302 296 297 299 299 296 296 297 294 299 299 300 299 293 294 294 293 295 294 296 295 294 293 292 295 292 290 303 300 298 306 308 308 307
302 302 301 301 301 301 301 301 301 301 302 302 301 302 303 302 303 302 296 304 306 299 297 301 301 301 301 303 301 303 299 299 299 296 298 299 295 293 296 291 299 294 299 297 298 298 307 305 307 308 310 308 306 308
302 301 301 301 301 301 301 301 301 302 302 302 302 303 302 303 302 302 300 302 301 297 296 296 295 300 306 307 310 299 302 303 302 306 303 301 296 299 293 295 298 298 299 298 299 304 305 306 307 306 307 307 307 308
301 302 301 301 301 301 301 301 301 302 301 302 302 302 302 301 301 302 299 303 301 297 290 292 303 300 306 307 308 308 307 308 308 307 303 300 298 303 300 300 298 301 298 300 301 305 302 304 307 308 306 306 305 307
300 300 301 301 301 301 301 301 301 301 302 302 303 302 302 301 301 302 302 303 305 297 288 291 299 300 301 302 307 307 307 305 304 303 297 297 302 301 301 299 298 300 300 299 300 306 306 308 310 309 306 305 306 306
299 300 300 300 301 301 301 301 301 301 302 302 302 303 301 300 300 299 291 300 304 302 294 285 297 299 301 304 306 305 306 306 306 302 303 304 303 302 297 297 302 304 305 306 304 304 305 304 304 309 306 306 306 305
299 299 300 300 300 300 300 301 301 301 301 302 302 300 300 300 301 295 293 299 302 302 291 285 287 296 303 304 305 306 308 306 303 302 302 303 303 302 298 296 303 305 305 304 302 301 300 300 302 303 304 304 302 304
299 299 299 299 299 299 300 300 300 300 300 301 301 300 300 300 300 298 304 302 302 297 293 285 285 291 302 298 297 305 302 305 304 302 302 302 301 300 295 302 305 300 299 299 299 298 298 299 299 298 299 298 297 297
299 299 299 299 299 299 299 299 299 300 300 300 300 300 300 299 294 296 301 301 304 298 288 287 285 289 302 296 296 295 298 294 302 298 299 302 298 296 297 298 300 299 299 298 296 297 297 296 294 295 295 296 296 294
299 298 298 298 299 299 299 299 300 300 300 300 298 293 288 295 301 300 298 295 294 296 297 290 295 291 299 297 290 291 290 290 288 295 299 297 297 295 295 298 299 299 298 297 295 293 293 292 293 293 294 295 295 293
300 299 299 299 299 299 300 300 300 300 299 297 293 291 300 302 299 296 287 287 289 288 293 294 295 292 298 293 291 289 288 290 290 292 295 292 291 288 292 294 295 298 298 299 299 298 297 297 294 293 292 292 292 291
301 300 299 299 299 300 300 300 299 299 296 299 300 303 301 295 294 288 288 287 286 287 292 291 293 298 297 298 291 291 286 288 287 291 291 284 284 287 288 289 290 293 294 295 295 294 294 293 293 291 291 288 286 285
300 300 300 299 300 300 300 300 300 300 301 302 296 287 290 286 283 285 281 285 285 288 288 288 288 291 291 293 288 288 285 285 287 285 281 282 285 287 286 288 286 287 288 288 288 288 288 286 286 284 282 283 283 283
300 300 301 300 300 300 300 299 299 299 294 287 287 283 284 283 283 285 285 285 285 285 286 288 286 287 287 287 285 286 285 286 282 280 279 282 283 286 286 285 284 283 283 283 283 283 282 282 282 283 283 283 282 281
300 300 300 300 300 300 299 298 297 296 289 284 285 281 282 284 283 283 284 285 286 286 287 287 287 288 285 285 284 285 281 277 277 276 278 281 283 284 284 284 283 282 282 282 282 281 281 281 280 280 281 281 281 280
300 300 300 300 300 299 298 297 295 292 289 283 278 277 280 280 278 279 279 281 284 284 287 290 287 284 280 280 278 276 276 272 274 276 278 281 283 283 283 283 283 283 282 282 282 281 280 279 279 278 279 279 279 279
298 297 299 298 298 297 297 293 291 286 284 280 277 278 277 278 276 277 279 280 284 286 283 283 277 276 282 276 273 275 272 274 277 277 278 279 280 281 281 282 282 282 281 281 280 280 279 280 280 279 277 277 277 277
296 298 298 298 297 296 294 292 286 283 278 279 277 277 278 277 277 278 279 281 285 284 282 277 280 274 273 271 272 274 276 278 277 276 276 278 279 279 279 279 279 280 279 279 279 280 280 279 278 278 278 278 278 278
297 297 298 298 298 293 288 288 287 278 278 279 279 280 279 278 280 280 281 282 282 284 281 278 273 271 271 273 274 275 276 278 275 275 275 276 276 277 277 277 276 276 276 276 276 276 276 276 277 278 278 278 277 277
296 296 295 295 297 291 286 287 290 282 278 279 280 277 277 277 278 280 280 281 279 277 273 271 271 272 273 274 275 275 276 279 278 275 273 274 276 275 274 275 275 275 275 274 273 274 275 274 274 275 275 275 275 274
292 290 292 293 290 289 286 286 285 284 284 282 283 281 278 279 277 275 276 279 275 272 271 273 273 274 275 276 277 276 275 275 274 275 274 272 273 274 274 274 274 273 272 272 271 270 270 270 271 272 272 272 273 272
289 289 289 289 287 286 285 285 286 286 284 283 282 280 277 275 274 274 276 273 271 272 274 273 274 274 273 273 274 274 274 274 273 272 272 272 270 270 270 271 271 269 269 269 269 268 268 268 269 269 269 269 270 270
288 288 285 285 282 283 280 286 281 281 279 279 281 276 275 274 275 277 271 272 271 274 275 274 274 274 273 273 273 273 273 273 272 271 271 270 270 270 270 269 270 269 268 268 269 268 267 266 267 267 268 268 268 268
286 280 277 277 280 276 280 278 281 279 280 278 277 273 273 274 275 272 268 270 271 273 273 273 275 273 273 272 271 271 272 272 271 271 272 271 269 268 269 268 268 268 268 268 268 267 267 266 265 267 266 266 265 265
278 276 279 275 278 276 275 275 276 277 274 275 274 273 272 276 270 268 267 270 271 271 271 272 272 272 270 270 271 270 271 272 270 268 269 270 270 270 268 267 267 266 267 267 266 266 265 265 265 265 265 264 262 263
272 274 275 275 276 276 275 273 273 273 274 272 272 272 274 270 267 266 269 271 271 271 271 271 271 271 270 271 270 270 270 271 271 268 267 268 268 267 266 265 266 265 266 265 264 264 264 263 263 262 263 263 261 262
272 273 275 276 277 276 274 275 275 273 271 270 271 269 269 264 264 267 271 272 271 270 270 271 273 272 270 269 269 269 269 269 268 267 268 267 266 266 265 264 262 263 265 264 264 263 262 262 262 262 262 262 262 261
274 275 269 271 272 274 270 270 270 269 270 271 270 263 263 264 265 269 270 270 270 270 269 269 270 270 269 269 269 269 268 267 266 267 267 266 266 265 264 264 263 261 263 262 263 263 263 262 262 261 260 260 260 261
271 273 273 265 268 268 267 268 268 268 269 269 266 264 263 266 267 269 270 271 271 270 268 267 266 267 266 266 266 267 267 268 264 261 260 263 264 264 264 264 264 263 263 263 262 262 263 263 262 261 260 260 260 261
271 273 270 266 264 265 266 267 266 267 267 268 268 266 266 266 267 270 270 270 269 268 267 267 266 268 266 267 265 264 264 264 263 263 262 262 262 263 263 263 263 263 262 262 261 261 261 261 261 261 260 259 260 258
271 275 271 270 267 267 267 267 268 268 267 266 266 265 264 265 267 267 267 266 266 265 267 266 265 265 265 265 265 264 263 263 260 260 261 262 263 263 263 262 262 262 262 261 260 260 259 259 260 259 259 257 257 256
270 269 269 267 266 267 268 269 269 268 267 267 265 265 264 265 263 265 266 267 267 267 262 264 266 266 264 264 262 263 256 262 262 261 260 262 263 263 263 262 262 261 261 260 260 259 258 258 258 258 258 257 256 256
269 271 270 268 267 265 268 269 268 266 266 266 265 264 264 265 263 265 264 264 266 267 266 266 265 264 262 261 262 262 260 262 259 258 258 258 257 259 260 262 261 260 259 259 259 259 257 257 257 257 257 256 255 255

GFSWCAN_sfc_thetae_042.txt.gz
Theta_e
302 302 303 302 303 302 302 303 302 303 303 303 303 302 302 303 303 301 298 304 300 295 297 299 300 298 297 297 293 297 295 298 297 289 291 291 290 291 289 292 293 291 289 290 293 290 287 305 304 297 305 307 311 309
302 302 302 302 302 302 302 301 302 302 302 302 303 302 302 302 303 302 297 305 307 301 298 304 304 305 301 302 299 299 298 297 298 295 293 296 293 295 293 287 297 291 295 292 295 295 300 303 305 309 312 310 312 311
302 302 302 302 301 301 301 301 301 302 302 302 302 302 302 302 302 302 300 305 302 296 298 299 299 304 308 309 311 299 302 303 301 305 300 298 294 297 292 294 295 298 301 296 295 298 299 303 308 310 311 311 312 312
301 301 301 302 301 301 301 301 301 301 301 301 301 301 302 302 303 303 301 303 300 298 292 294 303 302 307 308 307 307 305 307 306 306 301 298 296 301 296 299 295 298 299 298 298 300 302 304 306 308 311 313 312 312
301 301 301 301 301 301 301 300 300 301 301 301 302 302 302 303 304 304 304 305 306 298 291 293 301 303 304 304 304 305 304 302 301 298 300 295 299 301 304 301 298 301 299 297 296 302 305 305 309 310 310 309 310 311
301 301 301 301 301 301 301 301 300 299 300 301 302 303 302 302 304 300 291 301 306 305 296 289 300 299 301 302 301 301 303 302 303 300 299 301 304 301 298 295 299 301 303 306 303 307 307 308 308 309 308 309 310 311
301 301 301 301 301 301 301 301 301 301 302 301 302 302 303 302 302 298 295 300 304 306 295 290 291 298 300 300 301 299 302 301 302 301 299 300 301 300 299 294 299 302 303 305 306 307 305 307 304 305 306 306 309 309
300 301 301 301 301 301 300 301 301 301 301 301 302 302 302 302 303 298 303 302 305 299 296 288 288 291 301 296 294 302 298 297 298 299 301 300 302 302 294 295 297 300 302 304 302 304 303 304 303 304 304 305 304 305
299 300 300 300 301 301 300 300 300 301 301 301 301 301 300 300 296 297 301 302 306 299 290 289 286 286 298 297 298 299 301 291 299 295 298 300 298 288 286 288 290 293 295 298 301 303 303 302 302 302 301 301 301 303
299 299 299 299 300 300 300 300 300 300 301 301 300 296 290 297 300 301 299 295 294 296 295 288 290 287 290 296 295 295 298 294 290 296 301 296 284 287 286 288 289 290 293 295 296 296 297 298 300 298 298 299 300 300
299 299 299 299 299 299 299 299 300 300 300 298 294 291 298 301 299 296 288 288 290 286 290 290 290 287 293 286 288 290 289 295 288 293 293 292 279 282 286 286 287 288 291 291 294 293 292 294 296 294 290 289 288 288
300 300 300 299 299 299 299 300 300 300 301 299 298 299 298 293 290 287 286 288 287 286 289 289 289 289 291 298 289 288 287 288 286 296 286 279 280 284 285 284 284 285 285 285 286 285 286 286 286 285 284 283 283 283
300 300 299 299 299 300 299 300 299 299 303 304 297 291 289 288 283 283 281 284 285 287 287 285 286 286 291 292 286 286 286 284 287 284 278 278 282 284 284 283 282 283 282 282 282 282 282 282 283 283 281 281 281 280
300 299 299 299 299 299 299 299 298 301 299 290 287 283 284 282 281 279 280 282 285 285 285 285 285 285 285 285 285 284 284 285 281 278 274 278 281 282 283 283 282 281 281 281 280 280 280 280 279 279 279 280 279 278
299 299 299 299 299 298 298 297 298 298 291 284 284 278 280 283 283 283 284 285 285 286 285 286 286 286 286 284 286 285 281 275 276 273 277 279 281 281 281 281 281 280 280 280 280 279 279 279 278 278 280 280 279 278
299 299 298 298 298 297 298 299 298 295 289 282 279 277 279 281 280 281 281 282 285 284 286 289 286 284 280 281 278 277 276 272 274 276 279 280 279 279 279 280 280 281 280 280 280 279 279 278 277 277 278 277 277 277
300 297 297 297 297 296 297 296 291 284 282 280 278 281 281 280 279 281 282 282 286 287 284 284 279 279 283 277 274 277 274 275 277 278 278 278 277 278 279 279 278 278 279 279 280 280 279 280 279 278 276 278 278 278
296 297 298 298 299 297 294 292 286 282 277 279 278 278 280 280 280 281 283 284 287 285 282 278 281 274 274 273 273 276 276 277 277 277 278 278 277 277 278 277 278 278 278 277 277 277 278 278 278 278 278 278 278 278
297 298 298 298 298 294 288 288 287 278 279 280 280 281 281 281 282 283 285 285 284 284 283 280 274 272 273 278 278 278 278 277 275 276 277 278 279 279 278 277 277 276 276 277 276 276 276 275 275 276 276 276 274 274
295 295 295 296 297 292 286 285 290 282 278 280 282 279 279 278 281 280 280 282 281 278 274 272 272 274 275 277 279 280 280 280 278 276 275 276 277 277 276 277 277 277 275 274 273 274 274 274 274 274 274 272 273 272
294 294 295 296 294 292 289 287 285 285 284 282 283 281 279 280 277 276 278 279 276 274 272 274 274 276 278 278 279 279 278 279 277 277 275 274 276 276 275 276 275 275 273 272 271 270 270 271 272 273 273 272 271 271
294 292 295 295 289 289 288 291 287 289 284 283 283 282 279 277 277 277 278 274 273 274 276 275 275 276 276 275 277 277 277 277 277 277 276 276 274 274 274 274 274 272 272 272 271 270 270 269 271 272 271 271 272 270
290 293 291 291 286 286 283 291 284 284 281 281 282 278 278 277 278 281 273 274 274 277 277 276 276 276 275 276 277 277 277 277 275 275 275 274 274 274 273 272 273 272 271 271 272 270 270 268 270 270 270 269 269 269
291 286 283 284 284 280 286 282 284 282 282 280 278 274 275 277 280 275 270 272 275 277 277 277 277 275 275 275 274 274 276 276 275 275 276 274 272 271 271 270 270 270 271 271 270 269 269 269 267 268 268 267 266 266
282 278 282 279 286 282 279 279 280 280 277 278 275 275 276 280 274 272 270 272 274 275 276 277 277 276 273 273 273 273 275 275 273 271 273 274 274 273 272 270 269 268 269 268 268 268 267 267 267 266 266 265 263 264
275 277 279 280 280 280 279 277 278 277 277 275 275 277 279 276 272 270 271 273 273 274 275 276 275 274 273 274 272 271 272 275 273 270 269 270 270 270 269 268 268 266 268 268 267 266 266 266 265 265 265 265 263 263
275 275 279 283 282 281 280 281 280 278 276 275 276 276 275 270 268 270 274 275 273 274 276 277 276 274 272 272 272 272 272 271 271 270 270 270 269 269 267 265 264 264 267 266 266 265 265 264 264 264 264 264 264 263
277 278 274 277 276 279 275 275 274 273 274 276 276 270 269 270 269 273 273 274 275 275 274 274 274 274 273 273 273 273 272 271 270 271 271 270 269 269 268 268 266 265 266 266 265 265 264 264 264 264 264 262 263 264
276 277 274 269 272 271 271 272 271 271 272 275 272 269 267 271 273 272 273 274 275 274 272 271 271 272 271 271 271 271 270 269 268 265 265 266 267 266 268 267 267 267 266 266 267 266 265 264 264 263 263 263 264 265
276 279 272 270 268 267 269 272 271 274 273 272 271 269 269 270 273 275 274 274 273 272 272 272 272 272 270 270 269 268 268 267 266 266 265 265 265 266 267 266 266 266 266 266 265 265 266 265 265 265 264 264 264 263
280 277 273 271 268 270 271 273 274 274 274 273 273 269 267 268 270 273 273 273 272 272 271 270 270 271 270 270 269 268 266 266 264 264 264 266 266 266 266 265 266 266 265 265 264 263 264 263 262 262 263 262 261 261
277 274 271 268 268 272 274 275 275 273 273 271 270 270 271 271 267 269 272 273 272 271 267 271 270 269 269 268 267 265 263 266 266 265 265 265 266 265 265 265 265 265 265 264 263 263 263 262 262 262 261 261 261 260
276 275 274 272 271 272 274 275 273 272 272 270 269 271 270 271 267 269 271 272 272 272 270 271 270 269 267 267 267 266 262 266 262 262 261 261 259 261 261 263 263 263 263 262 262 262 262 262 262 261 260 259 259 260

GFSWCAN_sfc_thetae_045.txt.gz
Theta_e
301 301 302 302 302 302 302 303 303 303 303 303 303 303 303 303 303 301 298 300 295 287 293 298 298 293 293 293 288 291 291 292 288 284 284 283 280 287 287 289 290 287 285 285 287 284 282 300 301 294 297 302 304 304
301 302 302 302 302 302 302 302 302 302 302 302 302 302 302 303 303 302 295 300 299 294 295 302 303 303 301 300 296 295 292 292 292 287 286 287 281 286 287 283 293 286 291 288 291 289 299 300 302 303 303 302 306 305
302 302 302 302 302 301 302 301 301 301 302 302 302 303 303 303 303 302 297 298 297 293 295 297 296 302 306 303 304 295 295 296 296 298 291 289 283 287 281 284 288 293 297 292 293 296 298 300 302 306 307 306 305 308
301 301 301 301 301 301 301 301 301 302 302 302 303 303 303 303 303 302 297 299 297 292 289 293 304 299 305 303 303 303 302 302 300 297 291 287 284 294 283 290 288 292 297 295 293 297 299 300 302 307 306 308 306 307
301 301 301 301 301 301 301 301 301 301 302 302 303 303 303 303 303 301 298 301 302 296 288 289 297 300 303 303 301 303 302 299 294 290 287 285 292 294 293 292 289 296 294 290 288 299 300 301 303 306 306 307 307 305
301 301 301 301 301 300 300 300 301 301 301 302 302 303 303 302 302 299 292 301 304 303 294 284 296 298 300 300 299 297 299 297 297 293 290 295 300 295 288 285 294 297 300 301 298 302 301 302 303 304 304 304 305 305
301 301 301 301 300 300 300 300 301 301 301 301 301 302 302 302 299 294 292 298 303 301 292 284 283 295 299 297 295 296 297 296 295 296 292 295 296 297 288 283 291 293 295 297 300 301 300 299 298 302 302 302 303 303
300 301 301 300 300 301 301 300 301 301 301 302 302 302 303 303 302 296 300 303 303 297 293 280 279 285 296 288 288 295 291 292 293 294 293 293 296 292 283 287 289 291 293 295 296 300 299 301 301 299 300 300 299 300
300 300 300 300 301 300 301 301 301 301 301 302 302 302 300 297 293 295 302 303 302 296 283 280 278 282 293 290 291 291 293 282 293 285 287 293 286 280 282 284 286 287 289 292 295 296 297 297 297 295 293 293 293 289
300 300 299 299 300 300 300 300 301 301 301 302 300 294 288 294 301 301 297 292 291 292 291 281 288 284 290 285 283 287 283 283 280 285 295 285 279 285 285 286 285 286 289 290 290 288 290 290 289 288 287 287 286 284
300 300 300 300 299 300 300 300 301 300 300 297 292 290 295 300 297 292 283 284 287 282 286 285 285 285 292 285 286 287 285 284 282 284 286 281 276 281 284 282 284 285 286 287 287 286 287 287 286 285 283 283 281 281
300 300 299 299 299 299 299 300 300 298 297 297 296 297 295 292 289 284 282 285 281 281 286 284 287 289 290 292 287 286 285 286 281 288 279 273 278 282 282 281 281 282 283 282 283 282 283 282 282 281 280 279 279 279
299 299 300 299 299 300 299 299 299 300 301 299 295 287 288 286 281 275 276 278 282 284 285 285 285 286 289 291 285 284 284 282 286 279 273 275 279 281 281 281 280 281 281 280 280 280 280 279 279 279 278 279 278 278
299 299 299 299 298 299 298 299 299 299 295 287 285 279 279 275 278 277 278 280 284 284 283 284 284 284 285 284 285 279 283 283 277 272 270 275 278 279 280 280 279 278 278 278 278 278 278 277 277 277 277 277 277 276
299 299 299 298 298 298 298 299 298 292 285 279 279 272 274 280 280 281 282 283 284 284 283 284 284 285 284 281 283 283 277 272 272 270 273 276 278 279 279 279 279 278 277 277 277 276 276 276 275 276 277 277 277 277
299 299 296 297 297 298 298 296 293 291 283 278 277 273 276 273 275 278 278 279 284 284 284 284 284 281 278 278 275 274 272 269 271 273 276 277 276 276 276 277 278 279 278 278 278 277 277 276 276 276 276 276 276 275
300 295 297 297 298 297 297 292 287 281 279 276 274 277 275 273 275 279 281 281 285 283 281 281 275 275 280 274 271 273 270 272 273 274 275 276 275 276 276 276 276 276 275 276 277 277 277 278 278 277 275 276 276 275
295 297 298 299 299 297 292 290 283 280 276 278 274 276 277 277 276 277 281 281 282 282 281 277 279 273 271 270 269 272 272 274 275 275 275 275 275 275 275 274 275 276 275 275 274 274 274 274 274 274 274 274 275 275
296 296 297 298 297 292 285 286 284 276 277 278 278 278 278 277 278 279 281 281 281 281 280 276 272 270 271 274 272 273 273 273 273 273 274 276 277 276 275 274 273 272 273 273 273 272 272 272 272 271 272 271 269 270
296 296 296 296 297 289 284 284 287 280 278 278 279 276 276 276 278 277 277 279 278 276 272 271 270 272 272 274 277 276 277 277 275 272 272 274 274 274 273 273 273 272 271 270 269 270 270 270 271 270 268 267 267 266
294 294 295 295 292 290 286 284 283 282 281 279 280 280 276 276 274 273 273 276 273 272 270 272 272 274 276 276 276 276 276 276 274 273 272 272 273 273 272 272 272 271 269 267 266 266 265 267 268 268 267 264 262 263
292 294 289 292 285 286 284 286 284 285 282 281 280 280 276 272 270 272 274 271 270 271 273 273 274 275 275 274 275 276 276 276 275 273 273 272 269 269 269 269 268 266 267 266 265 262 263 266 266 266 263 264 266 263
292 291 286 286 280 279 277 286 279 282 277 277 278 275 274 272 275 277 269 272 272 275 275 275 275 276 275 275 275 276 276 274 272 271 270 270 269 267 267 267 267 264 264 267 267 266 263 263 264 260 259 260 259 258
290 283 279 278 278 273 278 275 280 279 276 274 272 269 271 272 274 269 268 270 273 276 275 275 274 272 272 271 271 272 273 273 271 270 270 268 266 266 266 265 265 266 267 268 266 261 261 257 259 259 256 253 254 253
275 273 276 272 278 273 271 271 272 273 269 271 268 270 270 274 267 267 267 270 270 271 273 274 273 271 268 267 268 270 271 271 268 266 266 269 268 268 266 266 264 265 265 260 260 257 255 255 254 254 256 252 254 254
269 273 274 275 273 272 273 268 268 268 268 267 269 275 272 266 263 265 270 270 269 270 272 271 268 268 269 270 267 267 268 271 268 264 266 267 266 260 259 261 261 259 263 258 255 256 255 255 253 254 253 256 255 252
268 272 278 281 279 277 273 273 274 270 268 269 269 267 264 259 260 267 271 269 267 269 272 273 271 269 268 268 268 268 267 267 266 267 267 266 266 265 260 255 254 258 261 257 254 253 255 253 254 253 254 251 252 251
275 274 269 271 270 273 267 267 266 267 266 271 268 261 260 261 263 270 268 269 271 271 270 270 270 270 269 270 269 268 265 264 263 264 266 264 263 260 259 258 258 263 259 257 255 254 253 252 251 251 252 250 251 252
271 272 270 264 266 267 267 267 266 268 270 270 261 261 262 269 268 269 269 270 270 268 264 262 263 262 263 265 264 263 262 260 257 255 254 256 258 258 257 256 256 257 255 256 262 261 257 256 254 253 253 253 253 254
272 273 267 264 263 263 267 270 269 266 268 266 268 268 268 269 270 269 270 272 270 267 264 262 264 263 262 262 259 257 256 254 255 255 254 255 257 255 256 256 254 257 254 254 254 255 260 256 256 253 255 254 255 253
275 271 267 266 265 266 264 269 270 270 269 266 265 263 261 262 265 269 268 264 263 262 262 261 260 261 260 261 259 259 255 255 253 254 254 254 254 258 257 253 255 255 255 255 253 252 252 252 253 251 251 251 251 253
272 267 265 263 266 268 270 272 267 265 264 261 260 261 261 262 260 261 264 265 267 264 264 265 262 258 257 257 254 253 256 256 256 254 254 253 255 252 252 253 253 254 257 254 252 253 253 252 252 252 253 253 250 250
270 270 267 265 265 265 268 267 266 266 265 262 261 263 262 262 259 261 263 264 268 265 265 263 260 257 257 258 257 254 257 254 254 260 257 256 254 254 250 250 250 250 250 250 250 250 252 255 254 254 255 253 252 250